Wetterdaten: Dienstag, 14.05.2019
Datum Zeit Temp. Aussen Temp. o. S. +5cm Feuchte Auss Luftdruck Regen Sonnenschein Regendauer Solar Windben Empfang
14.05.2019 00:00 9,9 C 8,3 C 8,3 C 59 % 1034,0 hPa 0,0 l/m 0 min 0 min 0 W/m 3,2 km/h (1 Bft) 95,74 %
14.05.2019 00:02 9,8 C 8,3 C 7,8 C 59 % 1033,9 hPa 0,0 l/m 0 min 0 min 0 W/m 6,4 km/h (2 Bft) 100,00 %
14.05.2019 00:04 9,8 C 8,3 C 7,8 C 60 % 1033,9 hPa 0,0 l/m 0 min 0 min 0 W/m 16,1 km/h (3 Bft) 95,74 %
14.05.2019 00:07 9,7 C 8,3 C 8,3 C 60 % 1033,9 hPa 0,0 l/m 0 min 0 min 0 W/m 6,4 km/h (2 Bft) 96,10 %
14.05.2019 00:08 9,7 C 8,3 C 8,3 C 60 % 1033,9 hPa 0,0 l/m 0 min 0 min 0 W/m 3,2 km/h (1 Bft) 91,67 %
14.05.2019 00:10 9,7 C 8,3 C 7,8 C 60 % 1033,8 hPa 0,0 l/m 0 min 0 min 0 W/m 6,4 km/h (2 Bft) 95,74 %
14.05.2019 00:12 9,7 C 8,3 C 7,8 C 60 % 1033,9 hPa 0,0 l/m 0 min 0 min 0 W/m 9,7 km/h (2 Bft) 95,65 %
14.05.2019 00:14 9,7 C 8,3 C 7,8 C 60 % 1033,8 hPa 0,0 l/m 0 min 0 min 0 W/m 12,9 km/h (3 Bft) 95,74 %
14.05.2019 00:16 9,7 C 8,3 C 7,8 C 61 % 1033,8 hPa 0,0 l/m 0 min 0 min 0 W/m 12,9 km/h (3 Bft) 97,87 %
14.05.2019 00:18 9,6 C 8,3 C 7,8 C 61 % 1033,8 hPa 0,0 l/m 0 min 0 min 0 W/m 6,4 km/h (2 Bft) 95,74 %
14.05.2019 00:20 9,6 C 8,3 C 7,8 C 60 % 1033,7 hPa 0,0 l/m 0 min 0 min 0 W/m 6,4 km/h (2 Bft) 100,00 %
14.05.2019 00:22 9,6 C 8,3 C 7,8 C 60 % 1033,8 hPa 0,0 l/m 0 min 0 min 0 W/m 9,7 km/h (2 Bft) 93,62 %
14.05.2019 00:24 9,6 C 8,3 C 7,8 C 60 % 1033,8 hPa 0,0 l/m 0 min 0 min 0 W/m 9,7 km/h (2 Bft) 100,00 %
14.05.2019 00:26 9,5 C 8,3 C 7,8 C 61 % 1033,8 hPa 0,0 l/m 0 min 0 min 0 W/m 12,9 km/h (3 Bft) 97,87 %
14.05.2019 00:28 9,5 C 8,3 C 7,8 C 61 % 1033,8 hPa 0,0 l/m 0 min 0 min 0 W/m 6,4 km/h (2 Bft) 97,87 %
14.05.2019 00:30 9,5 C 8,3 C 7,8 C 62 % 1033,9 hPa 0,0 l/m 0 min 0 min 0 W/m 6,4 km/h (2 Bft) 100,00 %
14.05.2019 00:32 9,4 C 8,3 C 7,8 C 62 % 1033,8 hPa 0,0 l/m 0 min 0 min 0 W/m 6,4 km/h (2 Bft) 100,00 %
14.05.2019 00:34 9,4 C 8,3 C 7,8 C 62 % 1033,8 hPa 0,0 l/m 0 min 0 min 0 W/m 9,7 km/h (2 Bft) 100,00 %
14.05.2019 00:36 9,4 C 8,3 C 7,8 C 62 % 1033,7 hPa 0,0 l/m 0 min 0 min 0 W/m 9,7 km/h (2 Bft) 97,83 %
14.05.2019 00:38 9,4 C 8,3 C 7,8 C 62 % 1033,7 hPa 0,0 l/m 0 min 0 min 0 W/m 16,1 km/h (3 Bft) 95,74 %
14.05.2019 00:40 9,4 C 8,3 C 7,8 C 63 % 1033,7 hPa 0,0 l/m 0 min 0 min 0 W/m 6,4 km/h (2 Bft) 95,74 %
14.05.2019 00:42 9,3 C 8,3 C 7,8 C 63 % 1033,7 hPa 0,0 l/m 0 min 0 min 0 W/m 6,4 km/h (2 Bft) 97,87 %
14.05.2019 00:44 9,3 C 8,3 C 7,8 C 63 % 1033,7 hPa 0,0 l/m 0 min 0 min 0 W/m 6,4 km/h (2 Bft) 95,74 %
14.05.2019 00:46 9,3 C 7,8 C 7,8 C 63 % 1033,7 hPa 0,0 l/m 0 min 0 min 0 W/m 6,4 km/h (2 Bft) 97,83 %
14.05.2019 00:48 9,3 C 7,8 C 7,8 C 63 % 1033,7 hPa 0,0 l/m 0 min 0 min 0 W/m 6,4 km/h (2 Bft) 97,87 %
14.05.2019 00:50 9,3 C 7,8 C 7,2 C 63 % 1033,8 hPa 0,0 l/m 0 min 0 min 0 W/m 6,4 km/h (2 Bft) 97,87 %
14.05.2019 00:52 9,2 C 7,8 C 7,2 C 63 % 1033,8 hPa 0,0 l/m 0 min 0 min 0 W/m 6,4 km/h (2 Bft) 97,87 %
14.05.2019 00:54 9,2 C 7,8 C 7,2 C 63 % 1033,7 hPa 0,0 l/m 0 min 0 min 0 W/m 6,4 km/h (2 Bft) 97,87 %
14.05.2019 00:56 9,2 C 7,8 C 7,2 C 63 % 1033,7 hPa 0,0 l/m 0 min 0 min 0 W/m 9,7 km/h (2 Bft) 97,87 %
14.05.2019 00:58 9,2 C 7,8 C 7,2 C 63 % 1033,7 hPa 0,0 l/m 0 min 0 min 0 W/m 3,2 km/h (1 Bft) 97,83 %
14.05.2019 01:00 9,1 C 7,8 C 7,2 C 64 % 1033,7 hPa 0,0 l/m 0 min 0 min 0 W/m 9,7 km/h (2 Bft) 97,87 %
14.05.2019 01:02 9,1 C 7,8 C 7,2 C 64 % 1033,7 hPa 0,0 l/m 0 min 0 min 0 W/m 16,1 km/h (3 Bft) 97,87 %
14.05.2019 01:04 9,1 C 7,8 C 7,2 C 64 % 1033,7 hPa 0,0 l/m 0 min 0 min 0 W/m 9,7 km/h (2 Bft) 97,87 %
14.05.2019 01:06 9,1 C 7,8 C 7,2 C 64 % 1033,8 hPa 0,0 l/m 0 min 0 min 0 W/m 16,1 km/h (3 Bft) 97,87 %
14.05.2019 01:08 9,1 C 7,8 C 7,2 C 64 % 1033,7 hPa 0,0 l/m 0 min 0 min 0 W/m 3,2 km/h (1 Bft) 93,62 %
14.05.2019 01:10 9,0 C 7,8 C 7,2 C 64 % 1033,7 hPa 0,0 l/m 0 min 0 min 0 W/m 9,7 km/h (2 Bft) 97,83 %
14.05.2019 01:12 9,0 C 7,8 C 7,2 C 64 % 1033,7 hPa 0,0 l/m 0 min 0 min 0 W/m 3,2 km/h (1 Bft) 97,87 %
14.05.2019 01:14 8,9 C 7,8 C 7,2 C 65 % 1033,7 hPa 0,0 l/m 0 min 0 min 0 W/m 9,7 km/h (2 Bft) 97,87 %
14.05.2019 01:16 8,9 C 7,8 C 7,2 C 65 % 1033,7 hPa 0,0 l/m 0 min 0 min 0 W/m 3,2 km/h (1 Bft) 97,87 %
14.05.2019 01:18 8,9 C 7,8 C 7,2 C 65 % 1033,7 hPa 0,0 l/m 0 min 0 min 0 W/m 6,4 km/h (2 Bft) 97,87 %
14.05.2019 01:20 8,9 C 7,8 C 7,2 C 65 % 1033,8 hPa 0,0 l/m 0 min 0 min 0 W/m 6,4 km/h (2 Bft) 97,87 %
14.05.2019 01:22 8,9 C 7,2 C 7,2 C 65 % 1033,7 hPa 0,0 l/m 0 min 0 min 0 W/m 6,4 km/h (2 Bft) 97,83 %
14.05.2019 01:24 8,8 C 7,2 C 6,7 C 65 % 1033,8 hPa 0,0 l/m 0 min 0 min 0 W/m 6,4 km/h (2 Bft) 97,87 %
14.05.2019 01:26 8,8 C 7,2 C 6,7 C 65 % 1033,8 hPa 0,0 l/m 0 min 0 min 0 W/m 6,4 km/h (2 Bft) 95,74 %
14.05.2019 01:28 8,8 C 7,2 C 6,7 C 66 % 1033,7 hPa 0,0 l/m 0 min 0 min 0 W/m 6,4 km/h (2 Bft) 97,87 %
14.05.2019 01:30 8,7 C 7,2 C 6,7 C 66 % 1033,7 hPa 0,0 l/m 0 min 0 min 0 W/m 3,2 km/h (1 Bft) 97,87 %
14.05.2019 01:32 8,7 C 7,2 C 6,7 C 66 % 1033,7 hPa 0,0 l/m 0 min 0 min 0 W/m 3,2 km/h (1 Bft) 97,87 %
14.05.2019 01:34 8,7 C 7,2 C 6,7 C 66 % 1033,7 hPa 0,0 l/m 0 min 0 min 0 W/m 9,7 km/h (2 Bft) 95,65 %
14.05.2019 01:36 8,7 C 7,2 C 6,7 C 66 % 1033,6 hPa 0,0 l/m 0 min 0 min 0 W/m 6,4 km/h (2 Bft) 95,74 %
14.05.2019 01:38 8,7 C 7,2 C 6,7 C 66 % 1033,6 hPa 0,0 l/m 0 min 0 min 0 W/m 0,0 km/h (0 Bft) 97,87 %
14.05.2019 01:40 8,6 C 6,7 C 6,7 C 66 % 1033,6 hPa 0,0 l/m 0 min 0 min 0 W/m 3,2 km/h (1 Bft) 97,87 %
14.05.2019 01:42 8,6 C 6,7 C 6,1 C 66 % 1033,6 hPa 0,0 l/m 0 min 0 min 0 W/m 3,2 km/h (1 Bft) 97,87 %
14.05.2019 01:44 8,6 C 6,7 C 6,1 C 66 % 1033,6 hPa 0,0 l/m 0 min 0 min 0 W/m 3,2 km/h (1 Bft) 91,49 %
14.05.2019 01:46 8,6 C 6,7 C 6,1 C 66 % 1033,6 hPa 0,0 l/m 0 min 0 min 0 W/m 3,2 km/h (1 Bft) 95,65 %
14.05.2019 01:48 8,5 C 6,7 C 6,1 C 67 % 1033,7 hPa 0,0 l/m 0 min 0 min 0 W/m 6,4 km/h (2 Bft) 97,87 %
14.05.2019 01:50 8,4 C 6,7 C 6,1 C 67 % 1033,6 hPa 0,0 l/m 0 min 0 min 0 W/m 6,4 km/h (2 Bft) 93,62 %
14.05.2019 01:52 8,4 C 6,7 C 6,1 C 67 % 1033,6 hPa 0,0 l/m 0 min 0 min 0 W/m 3,2 km/h (1 Bft) 95,74 %
14.05.2019 01:54 8,4 C 6,7 C 6,1 C 67 % 1033,6 hPa 0,0 l/m 0 min 0 min 0 W/m 3,2 km/h (1 Bft) 97,87 %
14.05.2019 01:56 8,4 C 6,7 C 6,1 C 67 % 1033,6 hPa 0,0 l/m 0 min 0 min 0 W/m 3,2 km/h (1 Bft) 97,83 %
14.05.2019 01:58 8,3 C 6,7 C 6,1 C 68 % 1033,7 hPa 0,0 l/m 0 min 0 min 0 W/m 3,2 km/h (1 Bft) 95,74 %
14.05.2019 02:00 8,3 C 6,7 C 6,1 C 68 % 1033,6 hPa 0,0 l/m 0 min 0 min 0 W/m 3,2 km/h (1 Bft) 97,87 %
14.05.2019 02:02 8,2 C 6,1 C 5,6 C 68 % 1033,6 hPa 0,0 l/m 0 min 0 min 0 W/m 3,2 km/h (1 Bft) 93,62 %
14.05.2019 02:04 8,2 C 6,1 C 5,6 C 68 % 1033,6 hPa 0,0 l/m 0 min 0 min 0 W/m 3,2 km/h (1 Bft) 97,87 %
14.05.2019 02:06 8,2 C 6,1 C 5,6 C 68 % 1033,6 hPa 0,0 l/m 0 min 0 min 0 W/m 3,2 km/h (1 Bft) 97,87 %
14.05.2019 02:08 8,1 C 6,1 C 5,6 C 68 % 1033,6 hPa 0,0 l/m 0 min 0 min 0 W/m 6,4 km/h (2 Bft) 95,65 %
14.05.2019 02:10 8,1 C 6,1 C 5,6 C 68 % 1033,6 hPa 0,0 l/m 0 min 0 min 0 W/m 3,2 km/h (1 Bft) 97,87 %
14.05.2019 02:12 8,0 C 6,1 C 5,6 C 69 % 1033,5 hPa 0,0 l/m 0 min 0 min 0 W/m 3,2 km/h (1 Bft) 97,87 %
14.05.2019 02:14 8,0 C 6,1 C 5,6 C 69 % 1033,6 hPa 0,0 l/m 0 min 0 min 0 W/m 3,2 km/h (1 Bft) 95,74 %
14.05.2019 02:16 7,9 C 6,1 C 5,6 C 69 % 1033,6 hPa 0,0 l/m 0 min 0 min 0 W/m 3,2 km/h (1 Bft) 100,00 %
14.05.2019 02:18 7,9 C 6,1 C 5,6 C 69 % 1033,6 hPa 0,0 l/m 0 min 0 min 0 W/m 6,4 km/h (2 Bft) 97,87 %
14.05.2019 02:20 7,8 C 6,1 C 5,6 C 69 % 1033,6 hPa 0,0 l/m 0 min 0 min 0 W/m 3,2 km/h (1 Bft) 100,00 %
14.05.2019 02:22 7,8 C 6,1 C 5,6 C 69 % 1033,5 hPa 0,0 l/m 0 min 0 min 0 W/m 6,4 km/h (2 Bft) 95,74 %
14.05.2019 02:24 7,8 C 6,1 C 5,6 C 69 % 1033,5 hPa 0,0 l/m 0 min 0 min 0 W/m 3,2 km/h (1 Bft) 100,00 %
14.05.2019 02:26 7,7 C 6,1 C 5,6 C 69 % 1033,5 hPa 0,0 l/m 0 min 0 min 0 W/m 3,2 km/h (1 Bft) 97,87 %
14.05.2019 02:28 7,7 C 6,1 C 5,6 C 70 % 1033,5 hPa 0,0 l/m 0 min 0 min 0 W/m 3,2 km/h (1 Bft) 100,00 %
14.05.2019 02:30 7,7 C 6,1 C 5,6 C 70 % 1033,6 hPa 0,0 l/m 0 min 0 min 0 W/m 3,2 km/h (1 Bft) 100,00 %
14.05.2019 02:32 7,6 C 6,1 C 5,6 C 70 % 1033,6 hPa 0,0 l/m 0 min 0 min 0 W/m 3,2 km/h (1 Bft) 97,83 %
14.05.2019 02:34 7,6 C 6,1 C 5,6 C 70 % 1033,6 hPa 0,0 l/m 0 min 0 min 0 W/m 6,4 km/h (2 Bft) 97,87 %
14.05.2019 02:36 7,6 C 6,1 C 5,6 C 70 % 1033,6 hPa 0,0 l/m 0 min 0 min 0 W/m 3,2 km/h (1 Bft) 97,87 %
14.05.2019 02:38 7,5 C 6,1 C 5,6 C 70 % 1033,6 hPa 0,0 l/m 0 min 0 min 0 W/m 0,0 km/h (0 Bft) 97,87 %
14.05.2019 02:40 7,5 C 6,1 C 5,6 C 70 % 1033,5 hPa 0,0 l/m 0 min 0 min 0 W/m 3,2 km/h (1 Bft) 95,74 %
14.05.2019 02:42 7,4 C 6,1 C 5,6 C 71 % 1033,5 hPa 0,0 l/m 0 min 0 min 0 W/m 3,2 km/h (1 Bft) 93,62 %
14.05.2019 02:44 7,4 C 6,1 C 5,0 C 71 % 1033,5 hPa 0,0 l/m 0 min 0 min 0 W/m 3,2 km/h (1 Bft) 97,83 %
14.05.2019 02:46 7,4 C 5,6 C 5,0 C 71 % 1033,5 hPa 0,0 l/m 0 min 0 min 0 W/m 3,2 km/h (1 Bft) 97,87 %
14.05.2019 02:48 7,4 C 5,6 C 5,0 C 71 % 1033,6 hPa 0,0 l/m 0 min 0 min 0 W/m 3,2 km/h (1 Bft) 97,87 %
14.05.2019 02:50 7,3 C 5,6 C 5,0 C 71 % 1033,6 hPa 0,0 l/m 0 min 0 min 0 W/m 3,2 km/h (1 Bft) 97,87 %
14.05.2019 02:52 7,3 C 5,6 C 5,0 C 71 % 1033,6 hPa 0,0 l/m 0 min 0 min 0 W/m 3,2 km/h (1 Bft) 97,87 %
14.05.2019 02:54 7,3 C 5,6 C 5,0 C 71 % 1033,6 hPa 0,0 l/m 0 min 0 min 0 W/m 6,4 km/h (2 Bft) 97,87 %
14.05.2019 02:56 7,3 C 6,1 C 5,0 C 72 % 1033,6 hPa 0,0 l/m 0 min 0 min 0 W/m 6,4 km/h (2 Bft) 93,48 %
14.05.2019 02:58 7,2 C 6,1 C 5,0 C 72 % 1033,5 hPa 0,0 l/m 0 min 0 min 0 W/m 3,2 km/h (1 Bft) 97,87 %
14.05.2019 03:00 7,2 C 6,1 C 5,0 C 72 % 1033,5 hPa 0,0 l/m 0 min 0 min 0 W/m 3,2 km/h (1 Bft) 97,87 %
14.05.2019 03:02 7,2 C 5,6 C 5,0 C 72 % 1033,6 hPa 0,0 l/m 0 min 0 min 0 W/m 9,7 km/h (2 Bft) 95,74 %
14.05.2019 03:04 7,2 C 6,1 C 5,0 C 73 % 1033,6 hPa 0,0 l/m 0 min 0 min 0 W/m 6,4 km/h (2 Bft) 97,87 %
14.05.2019 03:06 7,1 C 6,1 C 5,6 C 73 % 1033,6 hPa 0,0 l/m 0 min 0 min 0 W/m 12,9 km/h (3 Bft) 97,87 %
14.05.2019 03:08 7,1 C 6,1 C 5,6 C 74 % 1033,6 hPa 0,0 l/m 0 min 0 min 0 W/m 6,4 km/h (2 Bft) 97,83 %
14.05.2019 03:10 7,1 C 6,1 C 5,6 C 74 % 1033,6 hPa 0,0 l/m 0 min 0 min 0 W/m 6,4 km/h (2 Bft) 97,87 %
14.05.2019 03:12 7,1 C 6,1 C 5,6 C 74 % 1033,6 hPa 0,0 l/m 0 min 0 min 0 W/m 6,4 km/h (2 Bft) 95,74 %
14.05.2019 03:14 7,1 C 6,1 C 5,6 C 75 % 1033,6 hPa 0,0 l/m 0 min 0 min 0 W/m 6,4 km/h (2 Bft) 93,62 %
14.05.2019 03:16 7,1 C 6,1 C 5,6 C 75 % 1033,5 hPa 0,0 l/m 0 min 0 min 0 W/m 3,2 km/h (1 Bft) 97,87 %
14.05.2019 03:18 7,1 C 6,1 C 5,6 C 75 % 1033,5 hPa 0,0 l/m 0 min 0 min 0 W/m 3,2 km/h (1 Bft) 97,83 %
14.05.2019 03:20 7,0 C 6,1 C 5,6 C 75 % 1033,5 hPa 0,0 l/m 0 min 0 min 0 W/m 6,4 km/h (2 Bft) 95,74 %
14.05.2019 03:22 7,0 C 6,1 C 5,6 C 75 % 1033,6 hPa 0,0 l/m 0 min 0 min 0 W/m 6,4 km/h (2 Bft) 97,87 %
14.05.2019 03:24 7,0 C 6,1 C 5,6 C 75 % 1033,5 hPa 0,0 l/m 0 min 0 min 0 W/m 12,9 km/h (3 Bft) 97,87 %
14.05.2019 03:26 7,0 C 6,1 C 5,6 C 76 % 1033,6 hPa 0,0 l/m 0 min 0 min 0 W/m 9,7 km/h (2 Bft) 95,74 %
14.05.2019 03:28 7,0 C 6,1 C 5,6 C 76 % 1033,5 hPa 0,0 l/m 0 min 0 min 0 W/m 6,4 km/h (2 Bft) 100,00 %
14.05.2019 03:30 6,9 C 6,1 C 5,6 C 76 % 1033,5 hPa 0,0 l/m 0 min 0 min 0 W/m 6,4 km/h (2 Bft) 97,83 %
14.05.2019 03:32 6,9 C 6,1 C 5,6 C 76 % 1033,5 hPa 0,0 l/m 0 min 0 min 0 W/m 6,4 km/h (2 Bft) 97,87 %
14.05.2019 03:34 6,9 C 6,1 C 5,6 C 77 % 1033,5 hPa 0,0 l/m 0 min 0 min 0 W/m 6,4 km/h (2 Bft) 95,74 %
14.05.2019 03:36 6,9 C 6,1 C 5,6 C 77 % 1033,4 hPa 0,0 l/m 0 min 0 min 0 W/m 6,4 km/h (2 Bft) 97,87 %
14.05.2019 03:38 6,9 C 5,6 C 5,6 C 77 % 1033,5 hPa 0,0 l/m 0 min 0 min 0 W/m 6,4 km/h (2 Bft) 97,87 %
14.05.2019 03:40 6,9 C 6,1 C 5,6 C 77 % 1033,4 hPa 0,0 l/m 0 min 0 min 0 W/m 6,4 km/h (2 Bft) 95,74 %
14.05.2019 03:42 6,9 C 6,1 C 5,6 C 77 % 1033,5 hPa 0,0 l/m 0 min 0 min 0 W/m 16,1 km/h (3 Bft) 97,83 %
14.05.2019 03:44 6,9 C 6,1 C 5,6 C 77 % 1033,4 hPa 0,0 l/m 0 min 0 min 0 W/m 6,4 km/h (2 Bft) 97,87 %
14.05.2019 03:46 6,9 C 5,6 C 5,6 C 77 % 1033,4 hPa 0,0 l/m 0 min 0 min 0 W/m 6,4 km/h (2 Bft) 95,74 %
14.05.2019 03:48 6,8 C 5,6 C 5,6 C 77 % 1033,4 hPa 0,0 l/m 0 min 0 min 0 W/m 6,4 km/h (2 Bft) 97,87 %
14.05.2019 03:50 6,8 C 6,1 C 5,6 C 78 % 1033,4 hPa 0,0 l/m 0 min 0 min 0 W/m 12,9 km/h (3 Bft) 97,87 %
14.05.2019 03:52 6,8 C 6,1 C 5,6 C 78 % 1033,3 hPa 0,0 l/m 0 min 0 min 0 W/m 6,4 km/h (2 Bft) 97,87 %
14.05.2019 03:54 6,8 C 5,6 C 5,6 C 78 % 1033,3 hPa 0,0 l/m 0 min 0 min 0 W/m 6,4 km/h (2 Bft) 97,83 %
14.05.2019 03:56 6,8 C 5,6 C 5,6 C 78 % 1033,4 hPa 0,0 l/m 0 min 0 min 0 W/m 6,4 km/h (2 Bft) 97,87 %
14.05.2019 03:58 6,8 C 5,6 C 5,6 C 78 % 1033,3 hPa 0,0 l/m 0 min 0 min 0 W/m 12,9 km/h (3 Bft) 97,87 %
14.05.2019 04:00 6,8 C 5,6 C 5,6 C 78 % 1033,3 hPa 0,0 l/m 0 min 0 min 0 W/m 6,4 km/h (2 Bft) 95,74 %
14.05.2019 04:05 6,7 C 5,6 C 5,6 C 78 % 1033,3 hPa 0,0 l/m 0 min 0 min 0 W/m 6,4 km/h (2 Bft) 98,53 %
14.05.2019 04:06 6,7 C 5,6 C 5,6 C 78 % 1033,2 hPa 0,0 l/m 0 min 0 min 0 W/m 3,2 km/h (1 Bft) 95,65 %
14.05.2019 04:11 6,7 C 5,6 C 5,6 C 78 % 1033,2 hPa 0,0 l/m 0 min 0 min 0 W/m 9,7 km/h (2 Bft) 100,00 %
14.05.2019 04:12 6,7 C 5,6 C 5,6 C 79 % 1033,2 hPa 0,0 l/m 0 min 0 min 0 W/m 6,4 km/h (2 Bft) 95,83 %
14.05.2019 04:14 6,7 C 5,6 C 5,6 C 79 % 1033,2 hPa 0,0 l/m 0 min 0 min 0 W/m 9,7 km/h (2 Bft) 97,87 %
14.05.2019 04:16 6,7 C 5,6 C 5,6 C 79 % 1033,2 hPa 0,0 l/m 0 min 0 min 0 W/m 9,7 km/h (2 Bft) 100,00 %
14.05.2019 04:18 6,6 C 5,6 C 5,0 C 79 % 1033,2 hPa 0,0 l/m 0 min 0 min 0 W/m 6,4 km/h (2 Bft) 97,87 %
14.05.2019 04:20 6,6 C 5,6 C 5,0 C 79 % 1033,2 hPa 0,0 l/m 0 min 0 min 0 W/m 9,7 km/h (2 Bft) 100,00 %
14.05.2019 04:22 6,6 C 5,6 C 5,0 C 79 % 1033,2 hPa 0,0 l/m 0 min 0 min 0 W/m 12,9 km/h (3 Bft) 100,00 %
14.05.2019 04:24 6,6 C 5,6 C 5,0 C 79 % 1033,1 hPa 0,0 l/m 0 min 0 min 0 W/m 9,7 km/h (2 Bft) 100,00 %
14.05.2019 04:26 6,6 C 5,6 C 5,0 C 80 % 1033,1 hPa 0,0 l/m 0 min 0 min 0 W/m 9,7 km/h (2 Bft) 100,00 %
14.05.2019 04:28 6,6 C 5,6 C 5,0 C 80 % 1033,1 hPa 0,0 l/m 0 min 0 min 0 W/m 12,9 km/h (3 Bft) 100,00 %
14.05.2019 04:30 6,6 C 5,6 C 5,0 C 80 % 1033,1 hPa 0,0 l/m 0 min 0 min 0 W/m 12,9 km/h (3 Bft) 100,00 %
14.05.2019 04:32 6,6 C 5,6 C 5,0 C 80 % 1033,2 hPa 0,0 l/m 0 min 0 min 0 W/m 9,7 km/h (2 Bft) 100,00 %
14.05.2019 04:34 6,5 C 5,6 C 5,0 C 80 % 1033,3 hPa 0,0 l/m 0 min 0 min 0 W/m 9,7 km/h (2 Bft) 100,00 %
14.05.2019 04:36 6,5 C 5,6 C 5,0 C 80 % 1033,1 hPa 0,0 l/m 0 min 0 min 0 W/m 6,4 km/h (2 Bft) 100,00 %
14.05.2019 04:38 6,5 C 5,6 C 5,0 C 80 % 1033,1 hPa 0,0 l/m 0 min 0 min 0 W/m 9,7 km/h (2 Bft) 100,00 %
14.05.2019 04:40 6,5 C 5,6 C 5,0 C 80 % 1033,2 hPa 0,0 l/m 0 min 0 min 0 W/m 3,2 km/h (1 Bft) 97,87 %
14.05.2019 04:42 6,5 C 5,6 C 5,0 C 80 % 1033,2 hPa 0,0 l/m 0 min 0 min 0 W/m 6,4 km/h (2 Bft) 100,00 %
14.05.2019 04:44 6,4 C 5,6 C 5,0 C 80 % 1033,2 hPa 0,0 l/m 0 min 0 min 0 W/m 6,4 km/h (2 Bft) 100,00 %
14.05.2019 04:46 6,4 C 5,6 C 5,0 C 80 % 1033,1 hPa 0,0 l/m 0 min 0 min 0 W/m 9,7 km/h (2 Bft) 100,00 %
14.05.2019 04:48 6,4 C 5,6 C 5,0 C 80 % 1033,2 hPa 0,0 l/m 0 min 0 min 0 W/m 6,4 km/h (2 Bft) 100,00 %
14.05.2019 04:50 6,4 C 5,6 C 5,0 C 81 % 1033,2 hPa 0,0 l/m 0 min 0 min 0 W/m 6,4 km/h (2 Bft) 100,00 %
14.05.2019 04:52 6,4 C 5,6 C 5,0 C 81 % 1033,2 hPa 0,0 l/m 0 min 0 min 0 W/m 12,9 km/h (3 Bft) 100,00 %
14.05.2019 04:54 6,4 C 5,6 C 5,0 C 81 % 1033,2 hPa 0,0 l/m 0 min 0 min 0 W/m 6,4 km/h (2 Bft) 97,87 %
14.05.2019 04:56 6,4 C 5,0 C 5,0 C 81 % 1033,2 hPa 0,0 l/m 0 min 0 min 0 W/m 3,2 km/h (1 Bft) 93,62 %
14.05.2019 04:58 6,4 C 5,0 C 5,0 C 81 % 1033,3 hPa 0,0 l/m 0 min 0 min 0 W/m 9,7 km/h (2 Bft) 97,87 %
14.05.2019 05:00 6,3 C 5,0 C 5,0 C 81 % 1033,2 hPa 0,0 l/m 0 min 0 min 0 W/m 6,4 km/h (2 Bft) 97,87 %
14.05.2019 05:02 6,3 C 5,0 C 5,0 C 81 % 1033,2 hPa 0,0 l/m 0 min 0 min 0 W/m 6,4 km/h (2 Bft) 97,87 %
14.05.2019 05:04 6,3 C 5,0 C 5,0 C 81 % 1033,1 hPa 0,0 l/m 0 min 0 min 0 W/m 3,2 km/h (1 Bft) 97,83 %
14.05.2019 05:05 6,3 C 5,0 C 5,0 C 81 % 1033,1 hPa 0,0 l/m 0 min 0 min 0 W/m 6,4 km/h (2 Bft) 99,12 %
14.05.2019 05:10 6,2 C 5,0 C 4,4 C 82 % 1033,1 hPa 0,0 l/m 0 min 0 min 0 W/m 3,2 km/h (1 Bft) 100,00 %
14.05.2019 05:12 6,2 C 5,0 C 4,4 C 82 % 1033,2 hPa 0,0 l/m 0 min 0 min 0 W/m 6,4 km/h (2 Bft) 91,67 %
14.05.2019 05:14 6,2 C 5,0 C 4,4 C 82 % 1033,2 hPa 0,0 l/m 0 min 0 min 0 W/m 3,2 km/h (1 Bft) 100,00 %
14.05.2019 05:16 6,2 C 5,0 C 4,4 C 82 % 1033,2 hPa 0,0 l/m 0 min 0 min 0 W/m 3,2 km/h (1 Bft) 100,00 %
14.05.2019 05:18 6,2 C 5,0 C 4,4 C 82 % 1033,2 hPa 0,0 l/m 0 min 0 min 0 W/m 6,4 km/h (2 Bft) 98,00 %
14.05.2019 05:20 6,2 C 5,0 C 4,4 C 82 % 1033,2 hPa 0,0 l/m 0 min 0 min 0 W/m 3,2 km/h (1 Bft) 100,00 %
14.05.2019 05:22 6,1 C 4,4 C 4,4 C 82 % 1033,3 hPa 0,0 l/m 0 min 0 min 0 W/m 3,2 km/h (1 Bft) 95,83 %
14.05.2019 05:24 6,1 C 4,4 C 4,4 C 82 % 1033,3 hPa 0,0 l/m 0 min 0 min 0 W/m 3,2 km/h (1 Bft) 95,74 %
14.05.2019 05:26 6,1 C 4,4 C 3,9 C 82 % 1033,3 hPa 0,0 l/m 0 min 0 min 0 W/m 3,2 km/h (1 Bft) 98,00 %
14.05.2019 05:28 6,1 C 4,4 C 3,9 C 82 % 1033,3 hPa 0,0 l/m 0 min 0 min 0 W/m 6,4 km/h (2 Bft) 95,74 %
14.05.2019 05:30 6,0 C 4,4 C 3,9 C 82 % 1033,1 hPa 0,0 l/m 0 min 0 min 0 W/m 3,2 km/h (1 Bft) 95,74 %
14.05.2019 05:32 6,0 C 4,4 C 3,9 C 82 % 1033,3 hPa 0,0 l/m 0 min 0 min 0 W/m 0,0 km/h (0 Bft) 95,65 %
14.05.2019 05:34 5,9 C 4,4 C 3,9 C 82 % 1033,2 hPa 0,0 l/m 0 min 0 min 0 W/m 3,2 km/h (1 Bft) 93,02 %
14.05.2019 05:36 5,9 C 4,4 C 3,9 C 82 % 1033,2 hPa 0,0 l/m 0 min 0 min 0 W/m 6,4 km/h (2 Bft) 93,88 %
14.05.2019 05:38 5,9 C 4,4 C 3,9 C 82 % 1033,2 hPa 0,0 l/m 0 min 0 min 0 W/m 3,2 km/h (1 Bft) 93,88 %
14.05.2019 05:40 5,8 C 4,4 C 3,9 C 82 % 1033,3 hPa 0,0 l/m 0 min 0 min 0 W/m 3,2 km/h (1 Bft) 88,68 %
14.05.2019 05:42 5,8 C 4,4 C 3,9 C 82 % 1033,2 hPa 0,0 l/m 0 min 0 min 0 W/m 3,2 km/h (1 Bft) 94,74 %
14.05.2019 05:44 5,8 C 4,4 C 3,9 C 82 % 1033,2 hPa 0,0 l/m 0 min 0 min 0 W/m 3,2 km/h (1 Bft) 93,88 %
14.05.2019 05:46 5,8 C 4,4 C 3,9 C 82 % 1033,2 hPa 0,0 l/m 0 min 0 min 0 W/m 3,2 km/h (1 Bft) 91,49 %
14.05.2019 05:48 5,7 C 4,4 C 3,9 C 83 % 1033,2 hPa 0,0 l/m 0 min 0 min 0 W/m 6,4 km/h (2 Bft) 93,02 %
14.05.2019 05:50 5,7 C 4,4 C 3,9 C 82 % 1033,2 hPa 0,0 l/m 0 min 0 min 5 W/m 0,0 km/h (0 Bft) 92,59 %
14.05.2019 05:52 5,7 C 4,4 C 3,9 C 83 % 1033,2 hPa 0,0 l/m 0 min 0 min 5 W/m 3,2 km/h (1 Bft) 93,02 %
14.05.2019 05:54 5,7 C 4,4 C 3,9 C 83 % 1033,1 hPa 0,0 l/m 0 min 0 min 5 W/m 6,4 km/h (2 Bft) 93,75 %
14.05.2019 05:56 5,7 C 4,4 C 3,9 C 83 % 1033,1 hPa 0,0 l/m 0 min 0 min 5 W/m 6,4 km/h (2 Bft) 93,62 %
14.05.2019 05:58 5,6 C 4,4 C 3,9 C 83 % 1033,1 hPa 0,0 l/m 0 min 0 min 7 W/m 0,0 km/h (0 Bft) 91,49 %
14.05.2019 06:00 5,6 C 4,4 C 3,9 C 83 % 1033,1 hPa 0,0 l/m 0 min 0 min 7 W/m 0,0 km/h (0 Bft) 93,62 %
14.05.2019 06:02 5,6 C 4,4 C 3,9 C 83 % 1033,1 hPa 0,0 l/m 0 min 0 min 9 W/m 0,0 km/h (0 Bft) 94,00 %
14.05.2019 06:04 5,6 C 4,4 C 3,9 C 83 % 1033,1 hPa 0,0 l/m 0 min 0 min 9 W/m 0,0 km/h (0 Bft) 95,65 %
14.05.2019 06:08 5,5 C 4,4 C 3,9 C 83 % 1033,0 hPa 0,0 l/m 0 min 0 min 11 W/m 0,0 km/h (0 Bft) 95,29 %
14.05.2019 06:10 5,4 C 3,9 C 3,9 C 83 % 1033,0 hPa 0,0 l/m 0 min 0 min 11 W/m 0,0 km/h (0 Bft) 95,92 %
14.05.2019 06:12 5,4 C 3,9 C 3,9 C 83 % 1033,1 hPa 0,0 l/m 0 min 0 min 12 W/m 0,0 km/h (0 Bft) 95,74 %
14.05.2019 06:14 5,4 C 3,9 C 3,9 C 83 % 1033,1 hPa 0,0 l/m 0 min 0 min 12 W/m 0,0 km/h (0 Bft) 97,87 %
14.05.2019 06:16 5,4 C 3,9 C 3,9 C 84 % 1033,0 hPa 0,0 l/m 0 min 0 min 12 W/m 0,0 km/h (0 Bft) 98,00 %
14.05.2019 06:18 5,4 C 3,9 C 3,9 C 84 % 1033,0 hPa 0,0 l/m 0 min 0 min 14 W/m 0,0 km/h (0 Bft) 97,83 %
14.05.2019 06:20 5,3 C 4,4 C 3,9 C 84 % 1033,1 hPa 0,0 l/m 0 min 0 min 14 W/m 0,0 km/h (0 Bft) 97,62 %
14.05.2019 06:22 5,3 C 4,4 C 3,9 C 84 % 1033,0 hPa 0,0 l/m 0 min 0 min 14 W/m 0,0 km/h (0 Bft) 97,96 %
14.05.2019 06:24 5,3 C 4,4 C 3,9 C 84 % 1033,1 hPa 0,0 l/m 0 min 0 min 14 W/m 0,0 km/h (0 Bft) 97,96 %
14.05.2019 06:26 5,3 C 4,4 C 3,9 C 84 % 1033,0 hPa 0,0 l/m 0 min 0 min 14 W/m 0,0 km/h (0 Bft) 97,96 %
14.05.2019 06:28 5,3 C 4,4 C 3,9 C 84 % 1033,0 hPa 0,0 l/m 0 min 0 min 14 W/m 0,0 km/h (0 Bft) 100,00 %
14.05.2019 06:30 5,3 C 4,4 C 3,9 C 84 % 1032,9 hPa 0,0 l/m 0 min 0 min 14 W/m 0,0 km/h (0 Bft) 100,00 %
14.05.2019 06:32 5,2 C 4,4 C 3,9 C 84 % 1032,9 hPa 0,0 l/m 0 min 0 min 14 W/m 0,0 km/h (0 Bft) 100,00 %
14.05.2019 06:34 5,2 C 4,4 C 3,9 C 84 % 1032,9 hPa 0,0 l/m 0 min 0 min 14 W/m 0,0 km/h (0 Bft) 97,87 %
14.05.2019 06:36 5,2 C 4,4 C 3,9 C 84 % 1033,0 hPa 0,0 l/m 0 min 0 min 14 W/m 0,0 km/h (0 Bft) 100,00 %
14.05.2019 06:38 5,2 C 4,4 C 3,9 C 84 % 1033,1 hPa 0,0 l/m 0 min 0 min 15 W/m 0,0 km/h (0 Bft) 100,00 %
14.05.2019 06:40 5,2 C 4,4 C 3,9 C 85 % 1033,1 hPa 0,0 l/m 0 min 0 min 16 W/m 0,0 km/h (0 Bft) 100,00 %
14.05.2019 06:42 5,2 C 4,4 C 3,9 C 85 % 1033,0 hPa 0,0 l/m 0 min 0 min 16 W/m 0,0 km/h (0 Bft) 100,00 %
14.05.2019 06:44 5,2 C 4,4 C 3,9 C 85 % 1033,1 hPa 0,0 l/m 0 min 0 min 16 W/m 0,0 km/h (0 Bft) 100,00 %
14.05.2019 06:46 5,2 C 4,4 C 3,9 C 85 % 1033,1 hPa 0,0 l/m 0 min 0 min 14 W/m 0,0 km/h (0 Bft) 100,00 %
14.05.2019 06:48 5,2 C 4,4 C 3,9 C 85 % 1033,1 hPa 0,0 l/m 0 min 0 min 14 W/m 0,0 km/h (0 Bft) 100,00 %
14.05.2019 06:50 5,1 C 4,4 C 3,9 C 85 % 1033,1 hPa 0,0 l/m 0 min 0 min 14 W/m 0,0 km/h (0 Bft) 100,00 %
14.05.2019 06:52 5,1 C 4,4 C 3,9 C 85 % 1033,1 hPa 0,0 l/m 0 min 0 min 14 W/m 0,0 km/h (0 Bft) 98,15 %
14.05.2019 06:54 5,1 C 4,4 C 3,9 C 85 % 1033,2 hPa 0,0 l/m 0 min 0 min 14 W/m 0,0 km/h (0 Bft) 100,00 %
14.05.2019 06:56 5,1 C 4,4 C 3,9 C 86 % 1033,2 hPa 0,0 l/m 0 min 0 min 14 W/m 0,0 km/h (0 Bft) 100,00 %
14.05.2019 06:58 5,1 C 4,4 C 3,9 C 86 % 1033,2 hPa 0,0 l/m 0 min 0 min 16 W/m 0,0 km/h (0 Bft) 100,00 %
14.05.2019 07:00 5,1 C 3,9 C 3,9 C 86 % 1033,2 hPa 0,0 l/m 0 min 0 min 17 W/m 0,0 km/h (0 Bft) 100,00 %
14.05.2019 07:02 5,1 C 3,9 C 3,9 C 86 % 1033,2 hPa 0,0 l/m 0 min 0 min 18 W/m 0,0 km/h (0 Bft) 100,00 %
14.05.2019 07:04 5,1 C 3,9 C 3,9 C 86 % 1033,2 hPa 0,0 l/m 0 min 0 min 19 W/m 0,0 km/h (0 Bft) 97,83 %
14.05.2019 07:06 5,1 C 3,9 C 3,3 C 86 % 1033,1 hPa 0,0 l/m 0 min 0 min 19 W/m 0,0 km/h (0 Bft) 98,08 %
14.05.2019 07:08 5,1 C 3,9 C 3,3 C 86 % 1033,2 hPa 0,0 l/m 0 min 0 min 21 W/m 0,0 km/h (0 Bft) 100,00 %
14.05.2019 07:10 5,1 C 4,4 C 3,3 C 86 % 1033,1 hPa 0,0 l/m 0 min 0 min 22 W/m 0,0 km/h (0 Bft) 100,00 %
14.05.2019 07:12 5,1 C 4,4 C 3,3 C 86 % 1033,2 hPa 0,0 l/m 0 min 0 min 25 W/m 0,0 km/h (0 Bft) 100,00 %
14.05.2019 07:14 5,1 C 4,4 C 3,9 C 86 % 1033,2 hPa 0,0 l/m 0 min 0 min 26 W/m 0,0 km/h (0 Bft) 97,92 %
14.05.2019 07:16 5,0 C 4,4 C 3,9 C 86 % 1033,1 hPa 0,0 l/m 0 min 0 min 26 W/m 0,0 km/h (0 Bft) 97,96 %
14.05.2019 07:18 5,0 C 4,4 C 3,9 C 86 % 1033,1 hPa 0,0 l/m 0 min 0 min 28 W/m 0,0 km/h (0 Bft) 100,00 %
14.05.2019 07:20 5,0 C 4,4 C 3,9 C 86 % 1033,0 hPa 0,0 l/m 0 min 0 min 29 W/m 0,0 km/h (0 Bft) 100,00 %
14.05.2019 07:22 5,0 C 4,4 C 3,9 C 86 % 1033,0 hPa 0,0 l/m 0 min 0 min 32 W/m 0,0 km/h (0 Bft) 97,96 %
14.05.2019 07:24 5,0 C 5,0 C 3,9 C 86 % 1033,0 hPa 0,0 l/m 0 min 0 min 33 W/m 0,0 km/h (0 Bft) 97,92 %
14.05.2019 07:26 5,0 C 5,0 C 3,9 C 87 % 1033,1 hPa 0,0 l/m 0 min 0 min 34 W/m 0,0 km/h (0 Bft) 100,00 %
14.05.2019 07:28 5,1 C 5,0 C 4,4 C 87 % 1033,0 hPa 0,0 l/m 0 min 0 min 34 W/m 0,0 km/h (0 Bft) 93,88 %
14.05.2019 07:30 5,1 C 5,0 C 4,4 C 87 % 1033,0 hPa 0,0 l/m 0 min 0 min 35 W/m 0,0 km/h (0 Bft) 98,00 %
14.05.2019 07:32 5,1 C 5,6 C 4,4 C 87 % 1033,0 hPa 0,0 l/m 0 min 0 min 34 W/m 0,0 km/h (0 Bft) 97,87 %
14.05.2019 07:34 5,1 C 5,6 C 4,4 C 87 % 1033,0 hPa 0,0 l/m 0 min 0 min 33 W/m 0,0 km/h (0 Bft) 98,00 %
14.05.2019 07:36 5,1 C 5,6 C 4,4 C 87 % 1033,0 hPa 0,0 l/m 0 min 0 min 33 W/m 0,0 km/h (0 Bft) 95,65 %
14.05.2019 07:38 5,1 C 5,6 C 4,4 C 88 % 1033,0 hPa 0,0 l/m 0 min 0 min 33 W/m 3,2 km/h (1 Bft) 97,87 %
14.05.2019 07:40 5,2 C 5,6 C 5,0 C 88 % 1032,9 hPa 0,0 l/m 0 min 0 min 35 W/m 3,2 km/h (1 Bft) 97,30 %
14.05.2019 07:42 5,2 C 5,6 C 5,0 C 88 % 1032,9 hPa 0,0 l/m 0 min 0 min 37 W/m 3,2 km/h (1 Bft) 97,87 %
14.05.2019 07:44 5,3 C 5,6 C 5,0 C 88 % 1032,9 hPa 0,0 l/m 0 min 0 min 40 W/m 0,0 km/h (0 Bft) 97,96 %
14.05.2019 07:46 5,3 C 6,1 C 5,0 C 88 % 1032,9 hPa 0,0 l/m 0 min 0 min 42 W/m 3,2 km/h (1 Bft) 96,36 %
14.05.2019 07:48 5,4 C 6,1 C 5,0 C 89 % 1032,9 hPa 0,0 l/m 0 min 0 min 43 W/m 6,4 km/h (2 Bft) 97,37 %
14.05.2019 07:50 5,4 C 6,1 C 5,0 C 89 % 1032,9 hPa 0,0 l/m 0 min 0 min 46 W/m 6,4 km/h (2 Bft) 97,96 %
14.05.2019 07:52 5,5 C 6,1 C 5,0 C 89 % 1032,9 hPa 0,0 l/m 0 min 0 min 47 W/m 6,4 km/h (2 Bft) 97,87 %
14.05.2019 07:54 5,5 C 6,7 C 5,6 C 89 % 1032,8 hPa 0,0 l/m 0 min 0 min 49 W/m 6,4 km/h (2 Bft) 97,87 %
14.05.2019 07:56 5,6 C 6,7 C 5,6 C 89 % 1032,8 hPa 0,0 l/m 0 min 0 min 49 W/m 6,4 km/h (2 Bft) 97,67 %
14.05.2019 07:58 5,7 C 6,7 C 5,6 C 89 % 1032,8 hPa 0,0 l/m 0 min 0 min 49 W/m 6,4 km/h (2 Bft) 98,00 %
14.05.2019 08:00 5,7 C 6,7 C 5,6 C 89 % 1032,8 hPa 0,0 l/m 0 min 0 min 51 W/m 6,4 km/h (2 Bft) 97,87 %
14.05.2019 08:02 5,8 C 6,7 C 5,6 C 89 % 1032,7 hPa 0,0 l/m 0 min 0 min 50 W/m 6,4 km/h (2 Bft) 100,00 %
14.05.2019 08:04 5,9 C 7,2 C 6,1 C 89 % 1032,6 hPa 0,0 l/m 0 min 0 min 51 W/m 6,4 km/h (2 Bft) 100,00 %
14.05.2019 08:06 5,9 C 7,2 C 6,1 C 89 % 1032,6 hPa 0,0 l/m 0 min 0 min 53 W/m 6,4 km/h (2 Bft) 100,00 %
14.05.2019 08:08 6,0 C 7,2 C 6,1 C 89 % 1032,7 hPa 0,0 l/m 0 min 0 min 54 W/m 6,4 km/h (2 Bft) 100,00 %
14.05.2019 08:10 6,1 C 7,2 C 6,1 C 89 % 1032,7 hPa 0,0 l/m 0 min 0 min 56 W/m 3,2 km/h (1 Bft) 100,00 %
14.05.2019 08:12 6,2 C 7,2 C 6,1 C 89 % 1032,7 hPa 0,0 l/m 0 min 0 min 52 W/m 9,7 km/h (2 Bft) 100,00 %
14.05.2019 08:14 6,2 C 8,3 C 6,1 C 89 % 1032,6 hPa 0,0 l/m 0 min 0 min 57 W/m 16,1 km/h (3 Bft) 97,92 %
14.05.2019 08:16 6,3 C 10,6 C 6,7 C 90 % 1032,7 hPa 0,0 l/m 0 min 0 min 61 W/m 6,4 km/h (2 Bft) 97,87 %
14.05.2019 08:18 6,4 C 11,7 C 6,7 C 90 % 1032,7 hPa 0,0 l/m 0 min 0 min 63 W/m 9,7 km/h (2 Bft) 100,00 %
14.05.2019 08:20 6,6 C 12,2 C 6,7 C 89 % 1032,7 hPa 0,0 l/m 0 min 0 min 67 W/m 9,7 km/h (2 Bft) 98,00 %
14.05.2019 08:22 6,7 C 13,3 C 6,7 C 89 % 1032,7 hPa 0,0 l/m 0 min 0 min 69 W/m 6,4 km/h (2 Bft) 97,87 %
14.05.2019 08:24 6,8 C 13,3 C 7,2 C 89 % 1032,7 hPa 0,0 l/m 0 min 0 min 74 W/m 6,4 km/h (2 Bft) 95,92 %
14.05.2019 08:26 6,9 C 12,8 C 7,2 C 89 % 1032,7 hPa 0,0 l/m 0 min 0 min 86 W/m 12,9 km/h (3 Bft) 100,00 %
14.05.2019 08:28 7,1 C 13,3 C 7,2 C 89 % 1032,7 hPa 0,0 l/m 0 min 0 min 98 W/m 12,9 km/h (3 Bft) 95,74 %
14.05.2019 08:30 7,2 C 13,9 C 7,2 C 89 % 1032,7 hPa 0,0 l/m 0 min 0 min 123 W/m 9,7 km/h (2 Bft) 97,87 %
14.05.2019 08:32 7,4 C 13,9 C 7,8 C 88 % 1032,7 hPa 0,0 l/m 0 min 0 min 150 W/m 12,9 km/h (3 Bft) 97,87 %
14.05.2019 08:34 7,6 C 13,9 C 7,8 C 88 % 1032,7 hPa 0,0 l/m 0 min 0 min 179 W/m 9,7 km/h (2 Bft) 97,62 %
14.05.2019 08:36 7,8 C 14,4 C 8,3 C 88 % 1032,6 hPa 0,0 l/m 2 min 0 min 221 W/m 9,7 km/h (2 Bft) 98,28 %
14.05.2019 08:38 8,0 C 13,9 C 8,3 C 87 % 1032,6 hPa 0,0 l/m 2 min 0 min 218 W/m 12,9 km/h (3 Bft) 97,30 %
14.05.2019 08:40 8,2 C 14,4 C 8,9 C 86 % 1032,6 hPa 0,0 l/m 2 min 0 min 239 W/m 12,9 km/h (3 Bft) 95,92 %
14.05.2019 08:42 8,3 C 14,4 C 10,6 C 85 % 1032,6 hPa 0,0 l/m 2 min 0 min 335 W/m 9,7 km/h (2 Bft) 94,00 %
14.05.2019 08:44 8,6 C 15,6 C 12,8 C 85 % 1032,5 hPa 0,0 l/m 2 min 0 min 364 W/m 6,4 km/h (2 Bft) 93,75 %
14.05.2019 08:46 8,7 C 16,1 C 14,4 C 85 % 1032,6 hPa 0,0 l/m 2 min 0 min 392 W/m 9,7 km/h (2 Bft) 93,62 %
14.05.2019 08:48 8,9 C 15,6 C 15,6 C 84 % 1032,6 hPa 0,0 l/m 2 min 0 min 410 W/m 9,7 km/h (2 Bft) 95,74 %
14.05.2019 08:50 9,1 C 16,7 C 16,7 C 83 % 1032,6 hPa 0,0 l/m 2 min 0 min 454 W/m 9,7 km/h (2 Bft) 95,65 %
14.05.2019 08:52 9,3 C 17,2 C 17,2 C 83 % 1032,6 hPa 0,0 l/m 2 min 0 min 468 W/m 9,7 km/h (2 Bft) 95,74 %
14.05.2019 08:54 9,6 C 17,2 C 17,8 C 82 % 1032,5 hPa 0,0 l/m 2 min 0 min 476 W/m 9,7 km/h (2 Bft) 95,74 %
14.05.2019 08:56 9,7 C 17,2 C 17,8 C 81 % 1032,5 hPa 0,0 l/m 2 min 0 min 487 W/m 9,7 km/h (2 Bft) 96,00 %
14.05.2019 08:58 9,9 C 15,6 C 17,2 C 80 % 1032,4 hPa 0,0 l/m 2 min 0 min 478 W/m 12,9 km/h (3 Bft) 96,00 %
14.05.2019 09:00 10,0 C 16,1 C 17,8 C 79 % 1032,4 hPa 0,0 l/m 2 min 0 min 487 W/m 6,4 km/h (2 Bft) 97,83 %
14.05.2019 09:02 10,1 C 16,7 C 18,3 C 79 % 1032,4 hPa 0,0 l/m 2 min 0 min 512 W/m 9,7 km/h (2 Bft) 97,62 %
14.05.2019 09:04 10,3 C 17,2 C 18,9 C 78 % 1032,4 hPa 0,0 l/m 2 min 0 min 526 W/m 6,4 km/h (2 Bft) 97,87 %
14.05.2019 09:06 10,4 C 17,2 C 18,9 C 78 % 1032,4 hPa 0,0 l/m 2 min 0 min 519 W/m 12,9 km/h (3 Bft) 96,00 %
14.05.2019 09:08 10,6 C 16,7 C 18,3 C 78 % 1032,4 hPa 0,0 l/m 2 min 0 min 404 W/m 9,7 km/h (2 Bft) 97,87 %
14.05.2019 09:10 10,7 C 16,7 C 17,8 C 77 % 1032,4 hPa 0,0 l/m 2 min 0 min 473 W/m 9,7 km/h (2 Bft) 97,83 %
14.05.2019 09:12 10,8 C 15,6 C 16,7 C 76 % 1032,4 hPa 0,0 l/m 2 min 0 min 432 W/m 9,7 km/h (2 Bft) 97,30 %
14.05.2019 09:14 10,9 C 16,1 C 16,7 C 75 % 1032,4 hPa 0,0 l/m 2 min 0 min 475 W/m 9,7 km/h (2 Bft) 97,96 %
14.05.2019 09:16 10,9 C 15,6 C 16,7 C 75 % 1032,4 hPa 0,0 l/m 2 min 0 min 485 W/m 9,7 km/h (2 Bft) 97,87 %
14.05.2019 09:18 11,1 C 15,6 C 16,7 C 75 % 1032,4 hPa 0,0 l/m 2 min 0 min 423 W/m 9,7 km/h (2 Bft) 97,87 %
14.05.2019 09:20 11,1 C 16,1 C 16,7 C 75 % 1032,4 hPa 0,0 l/m 2 min 0 min 389 W/m 6,4 km/h (2 Bft) 100,00 %
14.05.2019 09:22 11,2 C 16,1 C 16,7 C 75 % 1032,3 hPa 0,0 l/m 2 min 0 min 414 W/m 6,4 km/h (2 Bft) 100,00 %
14.05.2019 09:24 11,3 C 17,2 C 17,8 C 75 % 1032,4 hPa 0,0 l/m 2 min 0 min 427 W/m 9,7 km/h (2 Bft) 100,00 %
14.05.2019 09:26 11,4 C 17,2 C 18,3 C 75 % 1032,4 hPa 0,0 l/m 2 min 0 min 553 W/m 9,7 km/h (2 Bft) 98,00 %
14.05.2019 09:28 11,5 C 17,2 C 17,2 C 74 % 1032,4 hPa 0,0 l/m 2 min 0 min 478 W/m 12,9 km/h (3 Bft) 100,00 %
14.05.2019 09:30 11,6 C 16,7 C 16,7 C 74 % 1032,3 hPa 0,0 l/m 2 min 0 min 500 W/m 12,9 km/h (3 Bft) 100,00 %
14.05.2019 09:32 11,6 C 17,8 C 17,8 C 73 % 1032,3 hPa 0,0 l/m 2 min 0 min 577 W/m 6,4 km/h (2 Bft) 100,00 %
14.05.2019 09:34 11,7 C 16,1 C 16,7 C 73 % 1032,3 hPa 0,0 l/m 2 min 0 min 477 W/m 9,7 km/h (2 Bft) 100,00 %
14.05.2019 09:36 11,8 C 16,1 C 16,7 C 72 % 1032,3 hPa 0,0 l/m 2 min 0 min 518 W/m 12,9 km/h (3 Bft) 100,00 %
14.05.2019 09:38 11,8 C 17,2 C 18,3 C 72 % 1032,3 hPa 0,0 l/m 2 min 0 min 631 W/m 9,7 km/h (2 Bft) 100,00 %
14.05.2019 09:40 11,9 C 17,8 C 18,9 C 72 % 1032,3 hPa 0,0 l/m 2 min 0 min 586 W/m 12,9 km/h (3 Bft) 97,87 %
14.05.2019 09:42 11,9 C 17,2 C 18,9 C 71 % 1032,2 hPa 0,0 l/m 2 min 0 min 556 W/m 25,7 km/h (4 Bft) 100,00 %
14.05.2019 09:44 12,0 C 17,2 C 18,3 C 71 % 1032,2 hPa 0,0 l/m 2 min 0 min 508 W/m 9,7 km/h (2 Bft) 100,00 %
14.05.2019 09:46 12,1 C 17,2 C 18,9 C 72 % 1032,3 hPa 0,0 l/m 2 min 0 min 495 W/m 6,4 km/h (2 Bft) 100,00 %
14.05.2019 09:48 12,2 C 18,3 C 18,9 C 72 % 1032,3 hPa 0,0 l/m 2 min 0 min 514 W/m 6,4 km/h (2 Bft) 98,08 %
14.05.2019 09:50 12,3 C 18,3 C 19,4 C 72 % 1032,3 hPa 0,0 l/m 2 min 0 min 588 W/m 9,7 km/h (2 Bft) 100,00 %
14.05.2019 09:52 12,4 C 18,3 C 18,9 C 71 % 1032,2 hPa 0,0 l/m 2 min 0 min 564 W/m 12,9 km/h (3 Bft) 100,00 %
14.05.2019 09:54 12,4 C 17,8 C 18,3 C 70 % 1032,2 hPa 0,0 l/m 2 min 0 min 483 W/m 9,7 km/h (2 Bft) 100,00 %
14.05.2019 09:56 12,5 C 17,2 C 18,9 C 70 % 1032,1 hPa 0,0 l/m 2 min 0 min 494 W/m 9,7 km/h (2 Bft) 100,00 %
14.05.2019 09:58 12,6 C 17,2 C 18,3 C 70 % 1032,2 hPa 0,0 l/m 2 min 0 min 526 W/m 12,9 km/h (3 Bft) 100,00 %
14.05.2019 10:00 12,7 C 17,8 C 18,9 C 70 % 1032,1 hPa 0,0 l/m 2 min 0 min 505 W/m 9,7 km/h (2 Bft) 100,00 %
14.05.2019 10:02 12,7 C 18,3 C 18,9 C 69 % 1032,1 hPa 0,0 l/m 2 min 0 min 600 W/m 12,9 km/h (3 Bft) 98,00 %
14.05.2019 10:04 12,8 C 19,4 C 20,0 C 69 % 1032,1 hPa 0,0 l/m 2 min 0 min 692 W/m 9,7 km/h (2 Bft) 100,00 %
14.05.2019 10:06 12,8 C 19,4 C 20,6 C 69 % 1032,0 hPa 0,0 l/m 2 min 0 min 652 W/m 16,1 km/h (3 Bft) 100,00 %
14.05.2019 10:08 12,9 C 18,9 C 20,0 C 68 % 1032,1 hPa 0,0 l/m 2 min 0 min 631 W/m 9,7 km/h (2 Bft) 100,00 %
14.05.2019 10:10 13,0 C 18,3 C 20,0 C 68 % 1032,1 hPa 0,0 l/m 2 min 0 min 621 W/m 16,1 km/h (3 Bft) 100,00 %
14.05.2019 10:12 13,1 C 18,9 C 20,0 C 67 % 1032,1 hPa 0,0 l/m 2 min 0 min 633 W/m 12,9 km/h (3 Bft) 98,00 %
14.05.2019 10:14 13,1 C 18,3 C 20,0 C 67 % 1032,0 hPa 0,0 l/m 2 min 0 min 596 W/m 12,9 km/h (3 Bft) 100,00 %
14.05.2019 10:16 13,2 C 18,3 C 19,4 C 68 % 1032,0 hPa 0,0 l/m 2 min 0 min 492 W/m 9,7 km/h (2 Bft) 97,87 %
14.05.2019 10:18 13,2 C 17,8 C 18,9 C 67 % 1032,1 hPa 0,0 l/m 2 min 0 min 510 W/m 19,3 km/h (3 Bft) 100,00 %
14.05.2019 10:20 13,3 C 18,3 C 19,4 C 68 % 1032,1 hPa 0,0 l/m 2 min 0 min 581 W/m 9,7 km/h (2 Bft) 100,00 %
14.05.2019 10:22 13,3 C 18,9 C 19,4 C 68 % 1032,0 hPa 0,0 l/m 2 min 0 min 571 W/m 6,4 km/h (2 Bft) 100,00 %
14.05.2019 10:24 13,4 C 19,4 C 20,0 C 68 % 1032,0 hPa 0,0 l/m 2 min 0 min 577 W/m 6,4 km/h (2 Bft) 100,00 %
14.05.2019 10:26 13,4 C 18,9 C 19,4 C 66 % 1032,0 hPa 0,0 l/m 2 min 0 min 570 W/m 12,9 km/h (3 Bft) 97,87 %
14.05.2019 10:28 13,5 C 18,3 C 19,4 C 67 % 1032,0 hPa 0,0 l/m 2 min 0 min 556 W/m 12,9 km/h (3 Bft) 100,00 %
14.05.2019 10:30 13,6 C 18,3 C 19,4 C 66 % 1032,0 hPa 0,0 l/m 2 min 0 min 592 W/m 9,7 km/h (2 Bft) 100,00 %
14.05.2019 10:32 13,6 C 18,3 C 18,9 C 66 % 1032,0 hPa 0,0 l/m 2 min 0 min 585 W/m 16,1 km/h (3 Bft) 98,08 %
14.05.2019 10:34 13,7 C 18,9 C 19,4 C 65 % 1032,0 hPa 0,0 l/m 2 min 0 min 631 W/m 16,1 km/h (3 Bft) 100,00 %
14.05.2019 10:36 13,7 C 18,9 C 19,4 C 65 % 1032,0 hPa 0,0 l/m 2 min 0 min 600 W/m 12,9 km/h (3 Bft) 100,00 %
14.05.2019 10:38 13,8 C 19,4 C 20,6 C 65 % 1032,0 hPa 0,0 l/m 2 min 0 min 636 W/m 9,7 km/h (2 Bft) 95,92 %
14.05.2019 10:40 13,9 C 20,6 C 21,1 C 66 % 1032,0 hPa 0,0 l/m 2 min 0 min 734 W/m 9,7 km/h (2 Bft) 97,30 %
14.05.2019 10:42 13,9 C 21,1 C 21,7 C 66 % 1032,0 hPa 0,0 l/m 2 min 0 min 719 W/m 9,7 km/h (2 Bft) 95,83 %
14.05.2019 10:44 14,2 C 21,7 C 22,8 C 67 % 1032,0 hPa 0,0 l/m 2 min 0 min 717 W/m 22,5 km/h (4 Bft) 98,00 %
14.05.2019 10:46 14,2 C 22,2 C 22,8 C 66 % 1032,0 hPa 0,0 l/m 2 min 0 min 749 W/m 12,9 km/h (3 Bft) 95,92 %
14.05.2019 10:48 14,2 C 21,7 C 22,2 C 65 % 1032,0 hPa 0,0 l/m 2 min 0 min 754 W/m 12,9 km/h (3 Bft) 97,87 %
14.05.2019 10:50 14,4 C 21,7 C 22,8 C 65 % 1031,9 hPa 0,0 l/m 2 min 0 min 750 W/m 9,7 km/h (2 Bft) 97,87 %
14.05.2019 10:52 14,5 C 22,2 C 23,3 C 65 % 1032,0 hPa 0,0 l/m 2 min 0 min 750 W/m 12,9 km/h (3 Bft) 97,37 %
14.05.2019 10:54 14,6 C 22,2 C 23,3 C 65 % 1031,9 hPa 0,0 l/m 2 min 0 min 720 W/m 9,7 km/h (2 Bft) 97,96 %
14.05.2019 10:56 14,7 C 22,2 C 23,3 C 64 % 1031,9 hPa 0,0 l/m 2 min 0 min 745 W/m 12,9 km/h (3 Bft) 97,96 %
14.05.2019 10:58 14,8 C 22,8 C 24,4 C 65 % 1031,9 hPa 0,0 l/m 2 min 0 min 772 W/m 12,9 km/h (3 Bft) 97,83 %
14.05.2019 11:00 15,0 C 22,8 C 23,9 C 64 % 1031,9 hPa 0,0 l/m 2 min 0 min 783 W/m 9,7 km/h (2 Bft) 98,18 %
14.05.2019 11:02 15,1 C 22,2 C 23,9 C 63 % 1031,9 hPa 0,0 l/m 2 min 0 min 788 W/m 16,1 km/h (3 Bft) 97,62 %
14.05.2019 11:04 15,2 C 22,2 C 24,4 C 62 % 1031,9 hPa 0,0 l/m 2 min 0 min 738 W/m 9,7 km/h (2 Bft) 93,62 %
14.05.2019 11:06 15,3 C 21,7 C 23,9 C 62 % 1031,8 hPa 0,0 l/m 2 min 0 min 691 W/m 9,7 km/h (2 Bft) 95,92 %
14.05.2019 11:08 15,3 C 21,7 C 23,9 C 62 % 1031,8 hPa 0,0 l/m 2 min 0 min 685 W/m 12,9 km/h (3 Bft) 97,96 %
14.05.2019 11:10 15,4 C 21,7 C 23,3 C 61 % 1031,7 hPa 0,0 l/m 2 min 0 min 762 W/m 9,7 km/h (2 Bft) 97,87 %
14.05.2019 11:12 15,4 C 22,2 C 24,4 C 62 % 1031,7 hPa 0,0 l/m 2 min 0 min 789 W/m 9,7 km/h (2 Bft) 97,30 %
14.05.2019 11:14 15,5 C 21,7 C 23,9 C 61 % 1031,7 hPa 0,0 l/m 2 min 0 min 780 W/m 12,9 km/h (3 Bft) 97,96 %
14.05.2019 11:16 15,5 C 21,7 C 23,3 C 60 % 1031,6 hPa 0,0 l/m 2 min 0 min 812 W/m 12,9 km/h (3 Bft) 97,96 %
14.05.2019 11:18 15,6 C 21,1 C 23,3 C 61 % 1031,6 hPa 0,0 l/m 2 min 0 min 809 W/m 16,1 km/h (3 Bft) 97,96 %
14.05.2019 11:20 15,6 C 22,2 C 23,9 C 62 % 1031,6 hPa 0,0 l/m 2 min 0 min 815 W/m 12,9 km/h (3 Bft) 97,30 %
14.05.2019 11:22 15,6 C 22,8 C 24,4 C 62 % 1031,4 hPa 0,0 l/m 2 min 0 min 818 W/m 9,7 km/h (2 Bft) 98,15 %
14.05.2019 11:24 15,7 C 21,7 C 23,9 C 60 % 1031,4 hPa 0,0 l/m 2 min 0 min 817 W/m 16,1 km/h (3 Bft) 100,00 %
14.05.2019 11:26 15,7 C 21,7 C 24,4 C 59 % 1031,3 hPa 0,0 l/m 2 min 0 min 795 W/m 16,1 km/h (3 Bft) 100,00 %
14.05.2019 11:28 15,7 C 21,7 C 24,4 C 60 % 1031,3 hPa 0,0 l/m 2 min 0 min 806 W/m 12,9 km/h (3 Bft) 100,00 %
14.05.2019 11:30 15,8 C 22,8 C 25,0 C 60 % 1031,3 hPa 0,0 l/m 2 min 0 min 843 W/m 9,7 km/h (2 Bft) 97,96 %
14.05.2019 11:32 15,9 C 22,8 C 25,0 C 59 % 1031,3 hPa 0,0 l/m 2 min 0 min 857 W/m 12,9 km/h (3 Bft) 100,00 %
14.05.2019 11:34 15,9 C 21,7 C 24,4 C 58 % 1031,3 hPa 0,0 l/m 2 min 0 min 849 W/m 12,9 km/h (3 Bft) 95,74 %
14.05.2019 11:36 15,9 C 22,8 C 25,6 C 58 % 1031,2 hPa 0,0 l/m 2 min 0 min 846 W/m 9,7 km/h (2 Bft) 97,87 %
14.05.2019 11:38 16,0 C 23,3 C 24,4 C 58 % 1031,2 hPa 0,0 l/m 2 min 0 min 856 W/m 16,1 km/h (3 Bft) 97,87 %
14.05.2019 11:40 16,1 C 23,3 C 24,4 C 59 % 1031,2 hPa 0,0 l/m 2 min 0 min 860 W/m 16,1 km/h (3 Bft) 97,67 %
14.05.2019 11:42 16,2 C 24,4 C 25,0 C 60 % 1031,2 hPa 0,0 l/m 2 min 0 min 883 W/m 22,5 km/h (4 Bft) 97,96 %
14.05.2019 11:44 16,3 C 24,4 C 25,6 C 58 % 1031,2 hPa 0,0 l/m 2 min 0 min 914 W/m 16,1 km/h (3 Bft) 97,96 %
14.05.2019 11:46 16,3 C 23,9 C 25,6 C 56 % 1031,3 hPa 0,0 l/m 2 min 0 min 959 W/m 9,7 km/h (2 Bft) 97,30 %
14.05.2019 11:48 16,4 C 23,3 C 25,6 C 54 % 1031,2 hPa 0,0 l/m 2 min 0 min 981 W/m 12,9 km/h (3 Bft) 97,96 %
14.05.2019 11:50 16,4 C 25,0 C 26,7 C 56 % 1031,2 hPa 0,0 l/m 2 min 0 min 984 W/m 9,7 km/h (2 Bft) 97,96 %
14.05.2019 11:52 16,6 C 25,0 C 27,2 C 57 % 1031,1 hPa 0,0 l/m 2 min 0 min 962 W/m 12,9 km/h (3 Bft) 97,96 %
14.05.2019 11:54 16,7 C 23,9 C 25,6 C 57 % 1031,1 hPa 0,0 l/m 2 min 0 min 948 W/m 12,9 km/h (3 Bft) 97,87 %
14.05.2019 11:56 16,8 C 22,2 C 23,9 C 56 % 1031,1 hPa 0,0 l/m 2 min 0 min 459 W/m 9,7 km/h (2 Bft) 95,65 %
14.05.2019 11:58 16,8 C 20,0 C 22,2 C 55 % 1031,1 hPa 0,0 l/m 0 min 0 min 213 W/m 9,7 km/h (2 Bft) 97,62 %
14.05.2019 12:00 16,8 C 22,2 C 23,9 C 55 % 1031,1 hPa 0,0 l/m 0 min 0 min 213 W/m 9,7 km/h (2 Bft) 98,18 %
14.05.2019 12:02 16,8 C 19,4 C 21,1 C 55 % 1031,2 hPa 0,0 l/m 0 min 0 min 206 W/m 9,7 km/h (2 Bft) 97,62 %
14.05.2019 12:04 16,7 C 21,1 C 22,8 C 54 % 1031,1 hPa 0,0 l/m 2 min 0 min 523 W/m 16,1 km/h (3 Bft) 97,87 %
14.05.2019 12:07 16,4 C 17,8 C 18,9 C 53 % 1031,2 hPa 0,0 l/m 3 min 0 min 439 W/m 12,9 km/h (3 Bft) 97,33 %
14.05.2019 12:08 16,4 C 17,2 C 18,3 C 53 % 1031,2 hPa 0,0 l/m 0 min 0 min 186 W/m 9,7 km/h (2 Bft) 100,00 %
14.05.2019 12:10 16,3 C 16,7 C 17,2 C 53 % 1031,3 hPa 0,0 l/m 0 min 0 min 206 W/m 12,9 km/h (3 Bft) 97,87 %
14.05.2019 12:12 16,1 C 16,1 C 16,7 C 53 % 1031,2 hPa 0,0 l/m 0 min 0 min 235 W/m 12,9 km/h (3 Bft) 97,96 %
14.05.2019 12:14 16,0 C 19,4 C 20,0 C 53 % 1031,2 hPa 0,0 l/m 2 min 0 min 437 W/m 9,7 km/h (2 Bft) 95,83 %
14.05.2019 12:16 15,9 C 21,1 C 21,7 C 55 % 1031,2 hPa 0,0 l/m 2 min 0 min 1013 W/m 9,7 km/h (2 Bft) 97,87 %
14.05.2019 12:18 15,9 C 18,9 C 18,9 C 53 % 1031,2 hPa 0,0 l/m 2 min 0 min 557 W/m 9,7 km/h (2 Bft) 97,87 %
14.05.2019 12:20 15,9 C 17,2 C 17,8 C 53 % 1031,2 hPa 0,0 l/m 0 min 0 min 170 W/m 9,7 km/h (2 Bft) 97,56 %
14.05.2019 12:22 15,8 C 18,9 C 19,4 C 54 % 1031,2 hPa 0,0 l/m 2 min 0 min 494 W/m 9,7 km/h (2 Bft) 97,96 %
14.05.2019 12:24 15,8 C 20,0 C 20,6 C 54 % 1031,2 hPa 0,0 l/m 2 min 0 min 939 W/m 12,9 km/h (3 Bft) 95,92 %
14.05.2019 12:26 15,8 C 21,1 C 22,2 C 55 % 1031,2 hPa 0,0 l/m 2 min 0 min 939 W/m 16,1 km/h (3 Bft) 97,92 %
14.05.2019 12:28 15,9 C 21,7 C 23,3 C 54 % 1031,1 hPa 0,0 l/m 2 min 0 min 939 W/m 12,9 km/h (3 Bft) 95,74 %
14.05.2019 12:30 15,9 C 21,1 C 24,4 C 53 % 1031,2 hPa 0,0 l/m 2 min 0 min 980 W/m 16,1 km/h (3 Bft) 95,65 %
14.05.2019 12:32 15,9 C 20,0 C 22,2 C 52 % 1031,2 hPa 0,0 l/m 2 min 0 min 799 W/m 19,3 km/h (3 Bft) 95,35 %
14.05.2019 12:34 15,9 C 18,3 C 20,6 C 51 % 1031,2 hPa 0,0 l/m 0 min 0 min 282 W/m 16,1 km/h (3 Bft) 97,96 %
14.05.2019 12:36 15,9 C 17,8 C 19,4 C 53 % 1031,2 hPa 0,0 l/m 0 min 0 min 266 W/m 9,7 km/h (2 Bft) 97,96 %
14.05.2019 12:38 15,8 C 16,1 C 17,8 C 54 % 1031,2 hPa 0,0 l/m 0 min 0 min 203 W/m 12,9 km/h (3 Bft) 97,87 %
14.05.2019 12:40 15,8 C 18,9 C 20,0 C 53 % 1031,1 hPa 0,0 l/m 0 min 0 min 247 W/m 22,5 km/h (4 Bft) 97,87 %
14.05.2019 12:42 15,8 C 21,1 C 22,8 C 53 % 1031,0 hPa 0,0 l/m 2 min 0 min 989 W/m 9,7 km/h (2 Bft) 100,00 %
14.05.2019 12:44 15,9 C 23,3 C 24,4 C 54 % 1031,0 hPa 0,0 l/m 2 min 0 min 1016 W/m 9,7 km/h (2 Bft) 100,00 %
14.05.2019 12:46 16,0 C 23,9 C 25,6 C 56 % 1030,9 hPa 0,0 l/m 2 min 0 min 1073 W/m 9,7 km/h (2 Bft) 97,96 %
14.05.2019 12:48 16,1 C 23,3 C 25,0 C 55 % 1030,9 hPa 0,0 l/m 2 min 0 min 1098 W/m 9,7 km/h (2 Bft) 95,92 %
14.05.2019 12:50 16,3 C 23,9 C 26,1 C 54 % 1030,8 hPa 0,0 l/m 2 min 0 min 1094 W/m 9,7 km/h (2 Bft) 97,87 %
14.05.2019 12:52 16,4 C 23,9 C 26,7 C 53 % 1030,8 hPa 0,0 l/m 2 min 0 min 1087 W/m 19,3 km/h (3 Bft) 100,00 %
14.05.2019 12:54 16,6 C 23,9 C 26,7 C 52 % 1030,8 hPa 0,0 l/m 2 min 0 min 1043 W/m 12,9 km/h (3 Bft) 100,00 %
14.05.2019 12:56 16,7 C 22,8 C 25,6 C 51 % 1030,7 hPa 0,0 l/m 2 min 0 min 994 W/m 12,9 km/h (3 Bft) 97,67 %
14.05.2019 12:58 16,8 C 22,8 C 25,6 C 52 % 1030,6 hPa 0,0 l/m 2 min 0 min 1015 W/m 16,1 km/h (3 Bft) 98,00 %
14.05.2019 13:00 16,8 C 21,7 C 23,9 C 51 % 1030,7 hPa 0,0 l/m 2 min 0 min 1034 W/m 9,7 km/h (2 Bft) 100,00 %
14.05.2019 13:02 16,9 C 21,7 C 24,4 C 51 % 1030,6 hPa 0,0 l/m 2 min 0 min 1034 W/m 9,7 km/h (2 Bft) 100,00 %
14.05.2019 13:04 16,9 C 21,7 C 24,4 C 50 % 1030,5 hPa 0,0 l/m 2 min 0 min 994 W/m 16,1 km/h (3 Bft) 97,87 %
14.05.2019 13:06 16,9 C 22,8 C 25,6 C 49 % 1030,5 hPa 0,0 l/m 2 min 0 min 1004 W/m 9,7 km/h (2 Bft) 95,65 %
14.05.2019 13:08 16,9 C 22,8 C 26,7 C 50 % 1030,6 hPa 0,0 l/m 2 min 0 min 1034 W/m 16,1 km/h (3 Bft) 97,87 %
14.05.2019 13:10 17,0 C 22,8 C 27,2 C 51 % 1030,6 hPa 0,0 l/m 2 min 0 min 1049 W/m 16,1 km/h (3 Bft) 97,14 %
14.05.2019 13:12 17,1 C 23,3 C 27,8 C 50 % 1030,5 hPa 0,0 l/m 2 min 0 min 1037 W/m 9,7 km/h (2 Bft) 97,96 %
14.05.2019 13:14 17,2 C 24,4 C 28,9 C 52 % 1030,5 hPa 0,0 l/m 2 min 0 min 1058 W/m 9,7 km/h (2 Bft) 97,92 %
14.05.2019 13:16 17,3 C 22,8 C 26,1 C 50 % 1030,5 hPa 0,0 l/m 2 min 0 min 1069 W/m 6,4 km/h (2 Bft) 97,87 %
14.05.2019 13:18 17,3 C 23,3 C 25,6 C 50 % 1030,4 hPa 0,0 l/m 2 min 0 min 1055 W/m 12,9 km/h (3 Bft) 97,87 %
14.05.2019 13:20 17,4 C 23,3 C 27,2 C 49 % 1030,4 hPa 0,0 l/m 2 min 0 min 1045 W/m 12,9 km/h (3 Bft) 95,12 %
14.05.2019 13:22 17,6 C 22,2 C 25,6 C 51 % 1030,5 hPa 0,0 l/m 2 min 0 min 947 W/m 12,9 km/h (3 Bft) 95,92 %
14.05.2019 13:24 17,6 C 19,4 C 22,2 C 50 % 1030,5 hPa 0,0 l/m 0 min 0 min 161 W/m 12,9 km/h (3 Bft) 93,88 %
14.05.2019 13:26 17,6 C 21,1 C 23,9 C 50 % 1030,5 hPa 0,0 l/m 0 min 0 min 163 W/m 9,7 km/h (2 Bft) 95,83 %
14.05.2019 13:28 17,6 C 22,2 C 25,0 C 48 % 1030,4 hPa 0,0 l/m 2 min 0 min 992 W/m 16,1 km/h (3 Bft) 95,74 %
14.05.2019 13:30 17,6 C 20,6 C 23,3 C 48 % 1030,3 hPa 0,0 l/m 2 min 0 min 855 W/m 16,1 km/h (3 Bft) 95,74 %
14.05.2019 13:32 17,4 C 18,9 C 21,1 C 50 % 1030,4 hPa 0,0 l/m 0 min 0 min 244 W/m 9,7 km/h (2 Bft) 95,65 %
14.05.2019 13:34 17,4 C 18,3 C 20,6 C 50 % 1030,4 hPa 0,0 l/m 0 min 0 min 253 W/m 6,4 km/h (2 Bft) 95,74 %
14.05.2019 13:36 17,3 C 18,3 C 20,6 C 50 % 1030,4 hPa 0,0 l/m 0 min 0 min 253 W/m 9,7 km/h (2 Bft) 96,36 %
14.05.2019 13:38 17,2 C 20,0 C 22,2 C 51 % 1030,4 hPa 0,0 l/m 0 min 0 min 200 W/m 9,7 km/h (2 Bft) 94,59 %
14.05.2019 13:40 17,2 C 22,2 C 24,4 C 53 % 1030,4 hPa 0,0 l/m 2 min 0 min 1013 W/m 12,9 km/h (3 Bft) 93,62 %
14.05.2019 13:42 17,2 C 22,8 C 24,4 C 51 % 1030,4 hPa 0,0 l/m 2 min 0 min 1026 W/m 9,7 km/h (2 Bft) 93,88 %
14.05.2019 13:44 17,2 C 18,9 C 21,7 C 48 % 1030,3 hPa 0,0 l/m 2 min 0 min 1025 W/m 12,9 km/h (3 Bft) 95,65 %
14.05.2019 13:46 17,2 C 21,1 C 23,9 C 49 % 1030,3 hPa 0,0 l/m 2 min 0 min 1025 W/m 9,7 km/h (2 Bft) 95,74 %
14.05.2019 13:48 17,2 C 23,3 C 26,1 C 52 % 1030,3 hPa 0,0 l/m 2 min 0 min 1024 W/m 12,9 km/h (3 Bft) 95,24 %
14.05.2019 13:50 17,3 C 23,3 C 26,7 C 52 % 1030,2 hPa 0,0 l/m 2 min 0 min 989 W/m 16,1 km/h (3 Bft) 95,92 %
14.05.2019 13:52 17,4 C 22,8 C 26,1 C 52 % 1030,2 hPa 0,0 l/m 2 min 0 min 946 W/m 9,7 km/h (2 Bft) 95,92 %
14.05.2019 13:54 17,4 C 21,7 C 26,1 C 48 % 1030,2 hPa 0,0 l/m 2 min 0 min 969 W/m 12,9 km/h (3 Bft) 95,74 %
14.05.2019 13:56 17,4 C 22,2 C 26,7 C 47 % 1030,1 hPa 0,0 l/m 2 min 0 min 941 W/m 9,7 km/h (2 Bft) 93,62 %
14.05.2019 13:58 17,4 C 22,8 C 27,2 C 48 % 1030,1 hPa 0,0 l/m 2 min 0 min 961 W/m 9,7 km/h (2 Bft) 93,62 %
14.05.2019 14:00 17,4 C 22,8 C 27,2 C 49 % 1030,0 hPa 0,0 l/m 2 min 0 min 954 W/m 12,9 km/h (3 Bft) 95,74 %
14.05.2019 14:02 17,5 C 23,3 C 27,8 C 49 % 1030,1 hPa 0,0 l/m 2 min 0 min 969 W/m 9,7 km/h (2 Bft) 95,45 %
14.05.2019 14:04 17,6 C 22,8 C 27,2 C 49 % 1030,0 hPa 0,0 l/m 2 min 0 min 967 W/m 12,9 km/h (3 Bft) 95,74 %
14.05.2019 14:06 17,6 C 21,1 C 25,6 C 47 % 1029,8 hPa 0,0 l/m 2 min 0 min 963 W/m 16,1 km/h (3 Bft) 98,36 %
14.05.2019 14:08 17,5 C 20,6 C 25,6 C 47 % 1029,9 hPa 0,0 l/m 2 min 0 min 978 W/m 16,1 km/h (3 Bft) 97,14 %
14.05.2019 14:10 17,4 C 20,6 C 25,0 C 46 % 1029,9 hPa 0,0 l/m 2 min 0 min 989 W/m 22,5 km/h (4 Bft) 97,87 %
14.05.2019 14:12 17,4 C 21,7 C 26,1 C 48 % 1029,8 hPa 0,0 l/m 2 min 0 min 997 W/m 12,9 km/h (3 Bft) 95,74 %
14.05.2019 14:14 17,4 C 22,2 C 26,1 C 50 % 1029,8 hPa 0,0 l/m 2 min 0 min 991 W/m 9,7 km/h (2 Bft) 97,67 %
14.05.2019 14:16 17,4 C 23,3 C 27,2 C 52 % 1029,7 hPa 0,0 l/m 2 min 0 min 982 W/m 9,7 km/h (2 Bft) 97,96 %
14.05.2019 14:18 17,6 C 22,2 C 26,1 C 51 % 1029,7 hPa 0,0 l/m 2 min 0 min 983 W/m 12,9 km/h (3 Bft) 95,83 %
14.05.2019 14:20 17,6 C 22,8 C 26,1 C 50 % 1029,6 hPa 0,0 l/m 2 min 0 min 970 W/m 9,7 km/h (2 Bft) 97,87 %
14.05.2019 14:22 17,7 C 22,8 C 26,7 C 51 % 1029,6 hPa 0,0 l/m 2 min 0 min 977 W/m 9,7 km/h (2 Bft) 97,87 %
14.05.2019 14:24 17,7 C 22,8 C 27,2 C 49 % 1029,6 hPa 0,0 l/m 2 min 0 min 979 W/m 16,1 km/h (3 Bft) 97,62 %
14.05.2019 14:26 17,8 C 23,3 C 27,2 C 51 % 1029,5 hPa 0,0 l/m 2 min 0 min 976 W/m 9,7 km/h (2 Bft) 97,96 %
14.05.2019 14:28 17,9 C 23,3 C 26,7 C 50 % 1029,5 hPa 0,0 l/m 2 min 0 min 971 W/m 16,1 km/h (3 Bft) 97,92 %
14.05.2019 14:30 18,0 C 22,8 C 26,1 C 49 % 1029,5 hPa 0,0 l/m 2 min 0 min 982 W/m 16,1 km/h (3 Bft) 100,00 %
14.05.2019 14:32 18,1 C 22,8 C 26,1 C 50 % 1029,5 hPa 0,0 l/m 2 min 0 min 1029 W/m 16,1 km/h (3 Bft) 100,00 %
14.05.2019 14:34 18,2 C 22,8 C 25,6 C 51 % 1029,4 hPa 0,0 l/m 2 min 0 min 1019 W/m 9,7 km/h (2 Bft) 100,00 %
14.05.2019 14:36 18,1 C 20,0 C 22,2 C 47 % 1029,4 hPa 0,0 l/m 2 min 0 min 654 W/m 9,7 km/h (2 Bft) 100,00 %
14.05.2019 14:38 18,1 C 20,6 C 22,2 C 49 % 1029,4 hPa 0,0 l/m 2 min 0 min 652 W/m 9,7 km/h (2 Bft) 100,00 %
14.05.2019 14:40 18,1 C 20,6 C 21,7 C 49 % 1029,4 hPa 0,0 l/m 2 min 0 min 601 W/m 12,9 km/h (3 Bft) 100,00 %
14.05.2019 14:42 18,1 C 22,2 C 23,3 C 53 % 1029,4 hPa 0,0 l/m 2 min 0 min 613 W/m 9,7 km/h (2 Bft) 100,00 %
14.05.2019 14:44 18,1 C 22,2 C 23,3 C 49 % 1029,4 hPa 0,0 l/m 2 min 0 min 944 W/m 19,3 km/h (3 Bft) 100,00 %
14.05.2019 14:46 18,1 C 20,6 C 21,1 C 48 % 1029,4 hPa 0,0 l/m 2 min 0 min 951 W/m 12,9 km/h (3 Bft) 95,74 %
14.05.2019 14:48 18,0 C 20,6 C 21,1 C 48 % 1029,4 hPa 0,0 l/m 2 min 0 min 939 W/m 12,9 km/h (3 Bft) 97,87 %
14.05.2019 14:50 18,0 C 21,1 C 20,0 C 48 % 1029,3 hPa 0,0 l/m 2 min 0 min 907 W/m 12,9 km/h (3 Bft) 97,87 %
14.05.2019 14:52 18,0 C 21,7 C 20,0 C 51 % 1029,3 hPa 0,0 l/m 2 min 0 min 910 W/m 9,7 km/h (2 Bft) 97,87 %
14.05.2019 14:54 18,1 C 22,2 C 19,4 C 52 % 1029,3 hPa 0,0 l/m 2 min 0 min 909 W/m 12,9 km/h (3 Bft) 95,65 %
14.05.2019 14:56 18,1 C 21,7 C 19,4 C 48 % 1029,2 hPa 0,0 l/m 2 min 0 min 907 W/m 16,1 km/h (3 Bft) 97,87 %
14.05.2019 14:58 18,1 C 21,7 C 19,4 C 48 % 1029,3 hPa 0,0 l/m 2 min 0 min 907 W/m 9,7 km/h (2 Bft) 97,87 %
14.05.2019 15:00 18,1 C 22,2 C 19,4 C 49 % 1029,2 hPa 0,0 l/m 2 min 0 min 904 W/m 6,4 km/h (2 Bft) 97,87 %
14.05.2019 15:02 18,1 C 22,2 C 19,4 C 50 % 1029,2 hPa 0,0 l/m 2 min 0 min 903 W/m 9,7 km/h (2 Bft) 97,87 %
14.05.2019 15:04 18,3 C 23,3 C 19,4 C 51 % 1029,3 hPa 0,0 l/m 2 min 0 min 946 W/m 6,4 km/h (2 Bft) 97,87 %
14.05.2019 15:06 18,4 C 21,7 C 19,4 C 50 % 1029,3 hPa 0,0 l/m 2 min 0 min 918 W/m 12,9 km/h (3 Bft) 96,55 %
14.05.2019 15:08 18,4 C 19,4 C 18,9 C 48 % 1029,3 hPa 0,0 l/m 2 min 0 min 519 W/m 12,9 km/h (3 Bft) 100,00 %
14.05.2019 15:10 18,3 C 19,4 C 18,3 C 47 % 1029,3 hPa 0,0 l/m 0 min 0 min 341 W/m 16,1 km/h (3 Bft) 95,74 %
14.05.2019 15:12 18,3 C 20,6 C 18,3 C 49 % 1029,3 hPa 0,0 l/m 0 min 0 min 353 W/m 12,9 km/h (3 Bft) 97,87 %
14.05.2019 15:14 18,3 C 21,1 C 18,9 C 49 % 1029,2 hPa 0,0 l/m 2 min 0 min 922 W/m 16,1 km/h (3 Bft) 97,87 %
14.05.2019 15:16 18,4 C 22,2 C 18,9 C 51 % 1029,2 hPa 0,0 l/m 2 min 0 min 920 W/m 9,7 km/h (2 Bft) 97,83 %
14.05.2019 15:18 18,4 C 21,1 C 18,9 C 50 % 1029,2 hPa 0,0 l/m 2 min 0 min 905 W/m 9,7 km/h (2 Bft) 97,87 %
14.05.2019 15:20 18,4 C 20,6 C 18,3 C 48 % 1029,2 hPa 0,0 l/m 0 min 0 min 346 W/m 12,9 km/h (3 Bft) 97,87 %
14.05.2019 15:22 18,5 C 21,1 C 18,9 C 49 % 1029,1 hPa 0,0 l/m 2 min 0 min 911 W/m 16,1 km/h (3 Bft) 95,74 %
14.05.2019 15:24 18,5 C 21,1 C 18,9 C 48 % 1029,1 hPa 0,0 l/m 2 min 0 min 892 W/m 9,7 km/h (2 Bft) 95,74 %
14.05.2019 15:26 18,6 C 21,1 C 18,9 C 50 % 1029,0 hPa 0,0 l/m 2 min 0 min 877 W/m 12,9 km/h (3 Bft) 97,87 %
14.05.2019 15:28 18,6 C 20,6 C 18,9 C 46 % 1028,9 hPa 0,0 l/m 2 min 0 min 864 W/m 16,1 km/h (3 Bft) 97,83 %
14.05.2019 15:30 18,6 C 20,6 C 18,9 C 47 % 1028,9 hPa 0,0 l/m 2 min 0 min 862 W/m 12,9 km/h (3 Bft) 97,87 %
14.05.2019 15:32 18,6 C 21,1 C 18,3 C 48 % 1028,9 hPa 0,0 l/m 2 min 0 min 862 W/m 12,9 km/h (3 Bft) 97,87 %
14.05.2019 15:34 18,6 C 21,1 C 18,9 C 50 % 1029,0 hPa 0,0 l/m 2 min 0 min 867 W/m 12,9 km/h (3 Bft) 97,87 %
14.05.2019 15:36 18,6 C 21,1 C 18,9 C 50 % 1028,9 hPa 0,0 l/m 2 min 0 min 865 W/m 9,7 km/h (2 Bft) 98,28 %
14.05.2019 15:38 18,7 C 21,7 C 19,4 C 50 % 1028,8 hPa 0,0 l/m 2 min 0 min 896 W/m 9,7 km/h (2 Bft) 97,22 %
14.05.2019 15:40 18,8 C 21,7 C 19,4 C 49 % 1028,8 hPa 0,0 l/m 2 min 0 min 913 W/m 12,9 km/h (3 Bft) 100,00 %
14.05.2019 15:42 18,8 C 20,6 C 19,4 C 48 % 1028,8 hPa 0,0 l/m 2 min 0 min 943 W/m 19,3 km/h (3 Bft) 95,74 %
14.05.2019 15:44 18,8 C 18,9 C 18,3 C 46 % 1028,8 hPa 0,0 l/m 2 min 0 min 500 W/m 19,3 km/h (3 Bft) 97,87 %
14.05.2019 15:46 18,8 C 20,0 C 18,3 C 48 % 1028,8 hPa 0,0 l/m 2 min 0 min 475 W/m 12,9 km/h (3 Bft) 97,87 %
14.05.2019 15:48 18,8 C 20,0 C 18,3 C 49 % 1028,8 hPa 0,0 l/m 2 min 0 min 846 W/m 12,9 km/h (3 Bft) 97,87 %
14.05.2019 15:50 18,7 C 20,6 C 18,3 C 48 % 1028,7 hPa 0,0 l/m 2 min 0 min 844 W/m 6,4 km/h (2 Bft) 97,87 %
14.05.2019 15:52 18,7 C 20,0 C 18,3 C 47 % 1028,7 hPa 0,0 l/m 2 min 0 min 830 W/m 19,3 km/h (3 Bft) 97,83 %
14.05.2019 15:54 18,7 C 20,0 C 18,3 C 47 % 1028,7 hPa 0,0 l/m 2 min 0 min 815 W/m 9,7 km/h (2 Bft) 97,87 %
14.05.2019 15:56 18,7 C 20,0 C 18,3 C 48 % 1028,7 hPa 0,0 l/m 2 min 0 min 797 W/m 16,1 km/h (3 Bft) 93,62 %
14.05.2019 15:58 18,7 C 19,4 C 18,9 C 46 % 1028,6 hPa 0,0 l/m 2 min 0 min 826 W/m 16,1 km/h (3 Bft) 97,87 %
14.05.2019 16:00 18,7 C 19,4 C 18,9 C 46 % 1028,6 hPa 0,0 l/m 2 min 0 min 858 W/m 12,9 km/h (3 Bft) 95,74 %
14.05.2019 16:02 18,7 C 20,0 C 18,9 C 48 % 1028,6 hPa 0,0 l/m 2 min 0 min 862 W/m 22,5 km/h (4 Bft) 97,87 %
14.05.2019 16:04 18,7 C 19,4 C 18,9 C 47 % 1028,6 hPa 0,0 l/m 2 min 0 min 843 W/m 12,9 km/h (3 Bft) 97,83 %
14.05.2019 16:06 18,7 C 18,3 C 18,3 C 46 % 1028,6 hPa 0,0 l/m 2 min 0 min 795 W/m 19,3 km/h (3 Bft) 98,31 %
14.05.2019 16:08 18,6 C 17,8 C 17,8 C 48 % 1028,6 hPa 0,0 l/m 2 min 0 min 614 W/m 9,7 km/h (2 Bft) 97,14 %
14.05.2019 16:10 18,4 C 16,7 C 16,7 C 46 % 1028,5 hPa 0,0 l/m 0 min 0 min 152 W/m 16,1 km/h (3 Bft) 97,87 %
14.05.2019 16:12 18,3 C 16,7 C 16,7 C 46 % 1028,6 hPa 0,0 l/m 0 min 0 min 224 W/m 12,9 km/h (3 Bft) 97,87 %
14.05.2019 16:14 18,2 C 17,8 C 17,2 C 48 % 1028,5 hPa 0,0 l/m 2 min 0 min 713 W/m 9,7 km/h (2 Bft) 97,87 %
14.05.2019 16:16 18,2 C 17,8 C 17,8 C 46 % 1028,4 hPa 0,0 l/m 2 min 0 min 766 W/m 16,1 km/h (3 Bft) 95,65 %
14.05.2019 16:18 18,1 C 17,8 C 18,3 C 47 % 1028,4 hPa 0,0 l/m 2 min 0 min 739 W/m 12,9 km/h (3 Bft) 95,74 %
14.05.2019 16:20 18,1 C 17,8 C 18,3 C 47 % 1028,3 hPa 0,0 l/m 2 min 0 min 628 W/m 9,7 km/h (2 Bft) 97,87 %
14.05.2019 16:22 18,1 C 17,8 C 17,8 C 49 % 1028,4 hPa 0,0 l/m 0 min 0 min 262 W/m 9,7 km/h (2 Bft) 95,74 %
14.05.2019 16:24 18,0 C 17,8 C 17,8 C 49 % 1028,4 hPa 0,0 l/m 0 min 0 min 262 W/m 9,7 km/h (2 Bft) 100,00 %
14.05.2019 16:26 18,0 C 18,3 C 17,8 C 49 % 1028,3 hPa 0,0 l/m 2 min 0 min 416 W/m 6,4 km/h (2 Bft) 100,00 %
14.05.2019 16:28 18,0 C 18,3 C 17,8 C 47 % 1028,3 hPa 0,0 l/m 2 min 0 min 808 W/m 12,9 km/h (3 Bft) 100,00 %
14.05.2019 16:30 18,1 C 18,9 C 18,3 C 49 % 1028,3 hPa 0,0 l/m 2 min 0 min 808 W/m 9,7 km/h (2 Bft) 100,00 %
14.05.2019 16:32 18,1 C 18,3 C 17,8 C 48 % 1028,2 hPa 0,0 l/m 2 min 0 min 362 W/m 9,7 km/h (2 Bft) 100,00 %
14.05.2019 16:34 18,1 C 18,3 C 17,8 C 48 % 1028,2 hPa 0,0 l/m 2 min 0 min 446 W/m 16,1 km/h (3 Bft) 100,00 %
14.05.2019 16:36 18,2 C 18,3 C 18,3 C 47 % 1028,1 hPa 0,0 l/m 2 min 0 min 766 W/m 12,9 km/h (3 Bft) 100,00 %
14.05.2019 16:38 18,2 C 18,3 C 18,3 C 48 % 1028,1 hPa 0,0 l/m 2 min 0 min 745 W/m 19,3 km/h (3 Bft) 100,00 %
14.05.2019 16:40 18,3 C 18,3 C 18,3 C 47 % 1028,1 hPa 0,0 l/m 2 min 0 min 753 W/m 16,1 km/h (3 Bft) 97,83 %
14.05.2019 16:42 18,3 C 18,3 C 18,3 C 48 % 1028,1 hPa 0,0 l/m 2 min 0 min 679 W/m 12,9 km/h (3 Bft) 100,00 %
14.05.2019 16:44 18,3 C 18,3 C 18,3 C 46 % 1028,1 hPa 0,0 l/m 2 min 0 min 664 W/m 9,7 km/h (2 Bft) 100,00 %
14.05.2019 16:46 18,4 C 17,8 C 17,8 C 46 % 1028,2 hPa 0,0 l/m 2 min 0 min 667 W/m 9,7 km/h (2 Bft) 100,00 %
14.05.2019 16:48 18,4 C 18,3 C 18,3 C 48 % 1028,1 hPa 0,0 l/m 2 min 0 min 662 W/m 12,9 km/h (3 Bft) 97,87 %
14.05.2019 16:50 18,4 C 17,8 C 17,8 C 46 % 1028,2 hPa 0,0 l/m 2 min 0 min 674 W/m 12,9 km/h (3 Bft) 100,00 %
14.05.2019 16:52 18,4 C 18,3 C 18,3 C 48 % 1028,2 hPa 0,0 l/m 2 min 0 min 682 W/m 9,7 km/h (2 Bft) 100,00 %
14.05.2019 16:54 18,5 C 18,3 C 18,3 C 47 % 1028,1 hPa 0,0 l/m 2 min 0 min 672 W/m 12,9 km/h (3 Bft) 100,00 %
14.05.2019 16:56 18,5 C 18,3 C 17,8 C 47 % 1028,1 hPa 0,0 l/m 2 min 0 min 669 W/m 9,7 km/h (2 Bft) 100,00 %
14.05.2019 16:58 18,6 C 18,3 C 18,3 C 49 % 1028,0 hPa 0,0 l/m 2 min 0 min 685 W/m 12,9 km/h (3 Bft) 97,87 %
14.05.2019 17:00 18,7 C 18,3 C 17,8 C 47 % 1028,0 hPa 0,0 l/m 2 min 0 min 679 W/m 9,7 km/h (2 Bft) 97,87 %
14.05.2019 17:02 18,7 C 18,9 C 18,3 C 48 % 1027,8 hPa 0,0 l/m 2 min 0 min 687 W/m 9,7 km/h (2 Bft) 93,48 %
14.05.2019 17:04 18,8 C 18,3 C 17,8 C 46 % 1027,9 hPa 0,0 l/m 2 min 0 min 541 W/m 9,7 km/h (2 Bft) 97,87 %
14.05.2019 17:06 18,8 C 18,3 C 18,3 C 46 % 1027,8 hPa 0,0 l/m 2 min 0 min 644 W/m 9,7 km/h (2 Bft) 96,61 %
14.05.2019 17:08 18,8 C 17,8 C 17,8 C 46 % 1027,8 hPa 0,0 l/m 2 min 0 min 643 W/m 12,9 km/h (3 Bft) 100,00 %
14.05.2019 17:10 18,7 C 17,2 C 17,2 C 45 % 1027,8 hPa 0,0 l/m 0 min 0 min 250 W/m 12,9 km/h (3 Bft) 97,87 %
14.05.2019 17:12 18,7 C 17,2 C 17,2 C 45 % 1027,8 hPa 0,0 l/m 2 min 0 min 323 W/m 6,4 km/h (2 Bft) 95,74 %
14.05.2019 17:14 18,6 C 17,8 C 17,2 C 45 % 1027,8 hPa 0,0 l/m 2 min 0 min 612 W/m 12,9 km/h (3 Bft) 95,65 %
14.05.2019 17:16 18,6 C 17,8 C 17,2 C 46 % 1027,7 hPa 0,0 l/m 2 min 0 min 554 W/m 12,9 km/h (3 Bft) 97,87 %
14.05.2019 17:18 18,6 C 17,2 C 17,2 C 45 % 1027,7 hPa 0,0 l/m 2 min 0 min 522 W/m 19,3 km/h (3 Bft) 97,87 %
14.05.2019 17:20 18,5 C 17,2 C 17,2 C 45 % 1027,8 hPa 0,0 l/m 2 min 0 min 441 W/m 12,9 km/h (3 Bft) 97,87 %
14.05.2019 17:22 18,5 C 17,2 C 17,2 C 46 % 1027,7 hPa 0,0 l/m 2 min 0 min 393 W/m 12,9 km/h (3 Bft) 95,74 %
14.05.2019 17:24 18,4 C 16,7 C 16,7 C 46 % 1027,7 hPa 0,0 l/m 2 min 0 min 421 W/m 9,7 km/h (2 Bft) 97,87 %
14.05.2019 17:26 18,4 C 17,2 C 16,7 C 46 % 1027,6 hPa 0,0 l/m 2 min 0 min 491 W/m 9,7 km/h (2 Bft) 97,83 %
14.05.2019 17:28 18,3 C 17,2 C 16,7 C 47 % 1027,6 hPa 0,0 l/m 2 min 0 min 509 W/m 12,9 km/h (3 Bft) 97,87 %
14.05.2019 17:30 18,2 C 16,7 C 16,7 C 45 % 1027,6 hPa 0,0 l/m 2 min 0 min 493 W/m 12,9 km/h (3 Bft) 97,87 %
14.05.2019 17:32 18,2 C 17,2 C 16,7 C 46 % 1027,7 hPa 0,0 l/m 2 min 0 min 493 W/m 12,9 km/h (3 Bft) 97,87 %
14.05.2019 17:34 18,1 C 17,2 C 17,2 C 47 % 1027,6 hPa 0,0 l/m 2 min 0 min 489 W/m 9,7 km/h (2 Bft) 100,00 %
14.05.2019 17:36 18,1 C 17,2 C 16,7 C 46 % 1027,6 hPa 0,0 l/m 2 min 0 min 521 W/m 9,7 km/h (2 Bft) 96,55 %
14.05.2019 17:38 18,1 C 17,2 C 17,2 C 47 % 1027,5 hPa 0,0 l/m 2 min 0 min 533 W/m 12,9 km/h (3 Bft) 97,14 %
14.05.2019 17:40 18,1 C 17,2 C 17,2 C 47 % 1027,5 hPa 0,0 l/m 2 min 0 min 534 W/m 12,9 km/h (3 Bft) 97,87 %
14.05.2019 17:42 18,1 C 17,2 C 17,2 C 46 % 1027,4 hPa 0,0 l/m 2 min 0 min 508 W/m 12,9 km/h (3 Bft) 97,87 %
14.05.2019 17:44 18,0 C 17,2 C 17,2 C 45 % 1027,4 hPa 0,0 l/m 2 min 0 min 523 W/m 12,9 km/h (3 Bft) 95,74 %
14.05.2019 17:46 18,1 C 17,8 C 17,2 C 47 % 1027,3 hPa 0,0 l/m 2 min 0 min 513 W/m 12,9 km/h (3 Bft) 97,87 %
14.05.2019 17:48 18,1 C 17,8 C 17,2 C 48 % 1027,4 hPa 0,0 l/m 2 min 0 min 495 W/m 9,7 km/h (2 Bft) 97,83 %
14.05.2019 17:50 18,1 C 17,2 C 16,7 C 47 % 1027,3 hPa 0,0 l/m 2 min 0 min 477 W/m 12,9 km/h (3 Bft) 95,74 %
14.05.2019 17:52 18,1 C 17,2 C 16,7 C 47 % 1027,3 hPa 0,0 l/m 2 min 0 min 481 W/m 9,7 km/h (2 Bft) 95,74 %
14.05.2019 17:54 18,1 C 17,2 C 16,7 C 47 % 1027,4 hPa 0,0 l/m 2 min 0 min 503 W/m 12,9 km/h (3 Bft) 97,87 %
14.05.2019 17:56 18,1 C 17,8 C 16,7 C 47 % 1027,4 hPa 0,0 l/m 2 min 0 min 509 W/m 16,1 km/h (3 Bft) 97,87 %
14.05.2019 17:58 18,2 C 17,2 C 16,7 C 46 % 1027,3 hPa 0,0 l/m 2 min 0 min 482 W/m 12,9 km/h (3 Bft) 95,74 %
14.05.2019 18:00 18,2 C 17,2 C 16,7 C 48 % 1027,4 hPa 0,0 l/m 2 min 0 min 491 W/m 9,7 km/h (2 Bft) 97,83 %
14.05.2019 18:02 18,2 C 17,2 C 16,7 C 46 % 1027,3 hPa 0,0 l/m 2 min 0 min 470 W/m 22,5 km/h (4 Bft) 97,87 %
14.05.2019 18:04 18,2 C 16,7 C 16,7 C 45 % 1027,3 hPa 0,0 l/m 2 min 0 min 456 W/m 9,7 km/h (2 Bft) 95,74 %
14.05.2019 18:08 18,1 C 16,7 C 16,7 C 46 % 1027,3 hPa 0,0 l/m 4 min 0 min 439 W/m 16,1 km/h (3 Bft) 96,81 %
14.05.2019 18:10 18,1 C 16,7 C 17,2 C 46 % 1027,2 hPa 0,0 l/m 2 min 0 min 414 W/m 12,9 km/h (3 Bft) 95,74 %
14.05.2019 18:12 17,9 C 16,7 C 17,2 C 45 % 1027,2 hPa 0,0 l/m 2 min 0 min 390 W/m 12,9 km/h (3 Bft) 97,83 %
14.05.2019 18:14 17,9 C 16,7 C 17,2 C 45 % 1027,2 hPa 0,0 l/m 2 min 0 min 388 W/m 9,7 km/h (2 Bft) 97,87 %
14.05.2019 18:16 17,9 C 16,7 C 16,7 C 44 % 1027,3 hPa 0,0 l/m 2 min 0 min 388 W/m 12,9 km/h (3 Bft) 95,74 %
14.05.2019 18:18 17,8 C 16,7 C 16,1 C 46 % 1027,3 hPa 0,0 l/m 2 min 0 min 397 W/m 9,7 km/h (2 Bft) 93,62 %
14.05.2019 18:20 17,8 C 16,7 C 16,1 C 45 % 1027,4 hPa 0,0 l/m 2 min 0 min 383 W/m 9,7 km/h (2 Bft) 95,74 %
14.05.2019 18:22 17,8 C 16,1 C 15,6 C 44 % 1027,3 hPa 0,0 l/m 2 min 0 min 375 W/m 12,9 km/h (3 Bft) 93,62 %
14.05.2019 18:24 17,7 C 16,1 C 16,1 C 45 % 1027,3 hPa 0,0 l/m 2 min 0 min 364 W/m 6,4 km/h (2 Bft) 95,65 %
14.05.2019 18:26 17,7 C 16,7 C 16,1 C 46 % 1027,3 hPa 0,0 l/m 2 min 0 min 378 W/m 9,7 km/h (2 Bft) 95,74 %
14.05.2019 18:28 17,7 C 16,7 C 16,1 C 45 % 1027,2 hPa 0,0 l/m 2 min 0 min 381 W/m 12,9 km/h (3 Bft) 95,74 %
14.05.2019 18:30 17,7 C 16,7 C 16,7 C 45 % 1027,2 hPa 0,0 l/m 2 min 0 min 349 W/m 9,7 km/h (2 Bft) 95,74 %
14.05.2019 18:32 17,6 C 16,7 C 16,7 C 45 % 1027,2 hPa 0,0 l/m 2 min 0 min 355 W/m 9,7 km/h (2 Bft) 95,74 %
14.05.2019 18:34 17,6 C 16,1 C 16,7 C 45 % 1027,2 hPa 0,0 l/m 2 min 0 min 342 W/m 12,9 km/h (3 Bft) 93,62 %
14.05.2019 18:36 17,6 C 16,1 C 16,1 C 46 % 1027,2 hPa 0,0 l/m 2 min 0 min 326 W/m 6,4 km/h (2 Bft) 96,55 %
14.05.2019 18:38 17,5 C 16,1 C 15,6 C 45 % 1027,2 hPa 0,0 l/m 2 min 0 min 316 W/m 22,5 km/h (4 Bft) 97,14 %
14.05.2019 18:40 17,4 C 16,1 C 15,6 C 45 % 1027,2 hPa 0,0 l/m 2 min 0 min 320 W/m 12,9 km/h (3 Bft) 95,74 %
14.05.2019 18:42 17,4 C 15,6 C 15,0 C 45 % 1027,2 hPa 0,0 l/m 2 min 0 min 276 W/m 12,9 km/h (3 Bft) 97,87 %
14.05.2019 18:44 17,3 C 15,6 C 15,0 C 45 % 1027,2 hPa 0,0 l/m 2 min 0 min 285 W/m 9,7 km/h (2 Bft) 97,87 %
14.05.2019 18:46 17,2 C 15,6 C 14,4 C 46 % 1027,2 hPa 0,0 l/m 2 min 0 min 274 W/m 9,7 km/h (2 Bft) 97,87 %
14.05.2019 18:48 17,2 C 15,6 C 14,4 C 46 % 1027,2 hPa 0,0 l/m 2 min 0 min 306 W/m 12,9 km/h (3 Bft) 97,83 %
14.05.2019 18:50 17,1 C 16,1 C 14,4 C 46 % 1027,2 hPa 0,0 l/m 2 min 0 min 322 W/m 9,7 km/h (2 Bft) 93,62 %
14.05.2019 18:52 17,1 C 16,1 C 14,4 C 46 % 1027,2 hPa 0,0 l/m 2 min 0 min 317 W/m 9,7 km/h (2 Bft) 97,87 %
14.05.2019 18:54 17,1 C 16,1 C 14,4 C 46 % 1027,2 hPa 0,0 l/m 2 min 0 min 312 W/m 12,9 km/h (3 Bft) 95,74 %
14.05.2019 18:56 17,0 C 16,1 C 14,4 C 46 % 1027,2 hPa 0,0 l/m 2 min 0 min 266 W/m 9,7 km/h (2 Bft) 97,87 %
14.05.2019 18:59 16,9 C 15,6 C 14,4 C 46 % 1027,3 hPa 0,0 l/m 3 min 0 min 254 W/m 12,9 km/h (3 Bft) 97,56 %
14.05.2019 19:00 16,9 C 15,6 C 13,9 C 45 % 1027,3 hPa 0,0 l/m 1 min 0 min 282 W/m 12,9 km/h (3 Bft) 100,00 %
14.05.2019 19:02 16,9 C 15,6 C 13,9 C 46 % 1027,2 hPa 0,0 l/m 2 min 0 min 279 W/m 12,9 km/h (3 Bft) 100,00 %
14.05.2019 19:04 16,8 C 15,6 C 13,9 C 45 % 1027,3 hPa 0,0 l/m 2 min 0 min 279 W/m 12,9 km/h (3 Bft) 100,00 %
14.05.2019 19:06 16,7 C 15,6 C 13,9 C 46 % 1027,3 hPa 0,0 l/m 2 min 0 min 287 W/m 9,7 km/h (2 Bft) 100,00 %
14.05.2019 19:08 16,7 C 15,6 C 13,9 C 46 % 1027,2 hPa 0,0 l/m 2 min 0 min 278 W/m 12,9 km/h (3 Bft) 100,00 %
14.05.2019 19:10 16,7 C 15,6 C 13,9 C 46 % 1027,2 hPa 0,0 l/m 2 min 0 min 268 W/m 12,9 km/h (3 Bft) 100,00 %
14.05.2019 19:12 16,6 C 15,6 C 13,9 C 46 % 1027,2 hPa 0,0 l/m 2 min 0 min 286 W/m 12,9 km/h (3 Bft) 100,00 %
14.05.2019 19:14 16,6 C 15,6 C 13,9 C 47 % 1027,2 hPa 0,0 l/m 2 min 0 min 265 W/m 12,9 km/h (3 Bft) 100,00 %
14.05.2019 19:16 16,5 C 15,6 C 13,9 C 47 % 1027,2 hPa 0,0 l/m 2 min 0 min 190 W/m 12,9 km/h (3 Bft) 100,00 %
14.05.2019 19:18 16,4 C 15,0 C 13,9 C 47 % 1027,2 hPa 0,0 l/m 0 min 0 min 136 W/m 16,1 km/h (3 Bft) 100,00 %
14.05.2019 19:20 16,4 C 15,0 C 13,9 C 47 % 1027,2 hPa 0,0 l/m 0 min 0 min 115 W/m 9,7 km/h (2 Bft) 100,00 %
14.05.2019 19:22 16,3 C 15,0 C 13,9 C 47 % 1027,2 hPa 0,0 l/m 0 min 0 min 109 W/m 9,7 km/h (2 Bft) 97,83 %
14.05.2019 19:24 16,3 C 15,0 C 13,9 C 46 % 1027,2 hPa 0,0 l/m 0 min 0 min 105 W/m 12,9 km/h (3 Bft) 100,00 %
14.05.2019 19:26 16,2 C 15,0 C 13,9 C 46 % 1027,2 hPa 0,0 l/m 0 min 0 min 102 W/m 16,1 km/h (3 Bft) 100,00 %
14.05.2019 19:28 16,1 C 15,0 C 13,9 C 46 % 1027,2 hPa 0,0 l/m 0 min 0 min 98 W/m 12,9 km/h (3 Bft) 100,00 %
14.05.2019 19:30 16,1 C 15,0 C 13,9 C 47 % 1027,2 hPa 0,0 l/m 0 min 0 min 91 W/m 9,7 km/h (2 Bft) 100,00 %
14.05.2019 19:32 16,0 C 15,0 C 13,9 C 47 % 1027,2 hPa 0,0 l/m 0 min 0 min 89 W/m 9,7 km/h (2 Bft) 100,00 %
14.05.2019 19:34 15,9 C 15,0 C 13,9 C 47 % 1027,1 hPa 0,0 l/m 0 min 0 min 88 W/m 9,7 km/h (2 Bft) 100,00 %
14.05.2019 19:36 15,9 C 14,4 C 13,9 C 48 % 1027,1 hPa 0,0 l/m 0 min 0 min 86 W/m 19,3 km/h (3 Bft) 100,00 %
14.05.2019 19:38 15,8 C 14,4 C 13,9 C 46 % 1027,1 hPa 0,0 l/m 0 min 0 min 84 W/m 12,9 km/h (3 Bft) 100,00 %
14.05.2019 19:40 15,7 C 14,4 C 13,9 C 47 % 1027,1 hPa 0,0 l/m 0 min 0 min 81 W/m 12,9 km/h (3 Bft) 100,00 %
14.05.2019 19:42 15,7 C 14,4 C 13,3 C 47 % 1027,2 hPa 0,0 l/m 0 min 0 min 77 W/m 9,7 km/h (2 Bft) 100,00 %
14.05.2019 19:44 15,6 C 14,4 C 13,3 C 47 % 1027,1 hPa 0,0 l/m 0 min 0 min 72 W/m 12,9 km/h (3 Bft) 97,87 %
14.05.2019 19:46 15,6 C 14,4 C 13,3 C 48 % 1027,1 hPa 0,0 l/m 0 min 0 min 69 W/m 12,9 km/h (3 Bft) 95,65 %
14.05.2019 19:48 15,5 C 14,4 C 13,3 C 48 % 1027,0 hPa 0,0 l/m 0 min 0 min 67 W/m 9,7 km/h (2 Bft) 100,00 %
14.05.2019 19:50 15,4 C 14,4 C 13,3 C 48 % 1027,0 hPa 0,0 l/m 0 min 0 min 68 W/m 9,7 km/h (2 Bft) 100,00 %
14.05.2019 19:52 15,4 C 13,9 C 13,3 C 48 % 1027,1 hPa 0,0 l/m 0 min 0 min 67 W/m 9,7 km/h (2 Bft) 97,87 %
14.05.2019 19:54 15,3 C 13,9 C 12,8 C 49 % 1027,1 hPa 0,0 l/m 0 min 0 min 65 W/m 9,7 km/h (2 Bft) 97,87 %
14.05.2019 19:56 15,3 C 13,9 C 12,8 C 49 % 1027,1 hPa 0,0 l/m 0 min 0 min 61 W/m 9,7 km/h (2 Bft) 97,87 %
14.05.2019 19:58 15,2 C 13,9 C 12,8 C 48 % 1027,0 hPa 0,0 l/m 0 min 0 min 58 W/m 12,9 km/h (3 Bft) 95,65 %
14.05.2019 20:00 15,2 C 13,9 C 12,8 C 49 % 1027,0 hPa 0,0 l/m 0 min 0 min 56 W/m 9,7 km/h (2 Bft) 97,87 %
14.05.2019 20:02 15,1 C 13,9 C 12,8 C 48 % 1026,9 hPa 0,0 l/m 0 min 0 min 53 W/m 12,9 km/h (3 Bft) 97,87 %
14.05.2019 20:04 15,0 C 13,9 C 12,8 C 49 % 1026,9 hPa 0,0 l/m 0 min 0 min 51 W/m 9,7 km/h (2 Bft) 95,74 %
14.05.2019 20:06 14,9 C 13,9 C 12,8 C 49 % 1027,0 hPa 0,0 l/m 0 min 0 min 52 W/m 9,7 km/h (2 Bft) 98,28 %
14.05.2019 20:08 14,9 C 13,9 C 12,8 C 49 % 1026,9 hPa 0,0 l/m 0 min 0 min 50 W/m 6,4 km/h (2 Bft) 97,14 %
14.05.2019 20:10 14,9 C 13,9 C 12,8 C 49 % 1026,9 hPa 0,0 l/m 0 min 0 min 47 W/m 6,4 km/h (2 Bft) 97,87 %
14.05.2019 20:12 14,8 C 13,3 C 12,8 C 50 % 1026,9 hPa 0,0 l/m 0 min 0 min 47 W/m 6,4 km/h (2 Bft) 95,74 %
14.05.2019 20:14 14,8 C 13,3 C 12,8 C 50 % 1026,9 hPa 0,0 l/m 0 min 0 min 46 W/m 9,7 km/h (2 Bft) 97,87 %
14.05.2019 20:15 14,8 C 13,3 C 12,2 C 51 % 1026,9 hPa 0,0 l/m 0 min 0 min 46 W/m 9,7 km/h (2 Bft) 100,00 %
14.05.2019 20:18 14,7 C 13,3 C 12,2 C 50 % 1026,9 hPa 0,0 l/m 0 min 0 min 43 W/m 9,7 km/h (2 Bft) 97,14 %
14.05.2019 20:20 14,7 C 13,3 C 12,2 C 50 % 1026,9 hPa 0,0 l/m 0 min 0 min 41 W/m 6,4 km/h (2 Bft) 97,87 %
14.05.2019 20:22 14,7 C 13,3 C 12,2 C 50 % 1027,0 hPa 0,0 l/m 0 min 0 min 40 W/m 6,4 km/h (2 Bft) 95,74 %
14.05.2019 20:24 14,6 C 13,3 C 12,2 C 50 % 1027,0 hPa 0,0 l/m 0 min 0 min 39 W/m 6,4 km/h (2 Bft) 97,62 %
14.05.2019 20:26 14,6 C 13,3 C 12,2 C 51 % 1026,9 hPa 0,0 l/m 0 min 0 min 37 W/m 6,4 km/h (2 Bft) 98,00 %
14.05.2019 20:28 14,5 C 12,8 C 12,2 C 51 % 1026,9 hPa 0,0 l/m 0 min 0 min 36 W/m 12,9 km/h (3 Bft) 97,87 %
14.05.2019 20:30 14,4 C 12,8 C 12,2 C 51 % 1026,9 hPa 0,0 l/m 0 min 0 min 34 W/m 9,7 km/h (2 Bft) 100,00 %
14.05.2019 20:32 14,4 C 12,8 C 12,2 C 50 % 1026,8 hPa 0,0 l/m 0 min 0 min 31 W/m 6,4 km/h (2 Bft) 100,00 %
14.05.2019 20:34 14,3 C 12,8 C 12,2 C 51 % 1026,9 hPa 0,0 l/m 0 min 0 min 28 W/m 6,4 km/h (2 Bft) 100,00 %
14.05.2019 20:36 14,3 C 12,8 C 12,2 C 51 % 1026,9 hPa 0,0 l/m 0 min 0 min 27 W/m 6,4 km/h (2 Bft) 100,00 %
14.05.2019 20:38 14,2 C 12,8 C 11,7 C 51 % 1026,8 hPa 0,0 l/m 0 min 0 min 26 W/m 6,4 km/h (2 Bft) 100,00 %
14.05.2019 20:40 14,2 C 12,8 C 11,7 C 51 % 1026,8 hPa 0,0 l/m 0 min 0 min 25 W/m 9,7 km/h (2 Bft) 100,00 %
14.05.2019 20:42 14,2 C 12,8 C 11,7 C 51 % 1026,9 hPa 0,0 l/m 0 min 0 min 24 W/m 9,7 km/h (2 Bft) 98,00 %
14.05.2019 20:44 14,2 C 12,8 C 11,7 C 52 % 1026,9 hPa 0,0 l/m 0 min 0 min 21 W/m 6,4 km/h (2 Bft) 100,00 %
14.05.2019 20:46 14,2 C 12,2 C 11,7 C 52 % 1026,9 hPa 0,0 l/m 0 min 0 min 19 W/m 9,7 km/h (2 Bft) 95,74 %
14.05.2019 20:48 14,1 C 12,2 C 11,7 C 52 % 1026,9 hPa 0,0 l/m 0 min 0 min 18 W/m 6,4 km/h (2 Bft) 97,87 %
14.05.2019 20:50 14,1 C 12,2 C 11,7 C 52 % 1027,0 hPa 0,0 l/m 0 min 0 min 18 W/m 6,4 km/h (2 Bft) 95,74 %
14.05.2019 20:52 14,0 C 12,2 C 11,1 C 52 % 1026,9 hPa 0,0 l/m 0 min 0 min 16 W/m 6,4 km/h (2 Bft) 97,67 %
14.05.2019 20:54 13,9 C 12,2 C 11,1 C 53 % 1026,9 hPa 0,0 l/m 0 min 0 min 16 W/m 6,4 km/h (2 Bft) 97,96 %
14.05.2019 20:56 13,9 C 12,2 C 11,1 C 53 % 1026,9 hPa 0,0 l/m 0 min 0 min 16 W/m 6,4 km/h (2 Bft) 97,87 %
14.05.2019 20:58 13,8 C 11,7 C 11,1 C 53 % 1026,9 hPa 0,0 l/m 0 min 0 min 14 W/m 6,4 km/h (2 Bft) 97,92 %
14.05.2019 21:00 13,8 C 11,7 C 11,1 C 54 % 1026,9 hPa 0,0 l/m 0 min 0 min 14 W/m 6,4 km/h (2 Bft) 97,87 %
14.05.2019 21:02 13,7 C 11,7 C 11,1 C 54 % 1026,9 hPa 0,0 l/m 0 min 0 min 12 W/m 6,4 km/h (2 Bft) 93,62 %
14.05.2019 21:04 13,6 C 11,7 C 11,1 C 53 % 1026,9 hPa 0,0 l/m 0 min 0 min 12 W/m 6,4 km/h (2 Bft) 95,65 %
14.05.2019 21:06 13,6 C 11,7 C 10,6 C 53 % 1026,9 hPa 0,0 l/m 0 min 0 min 10 W/m 6,4 km/h (2 Bft) 95,74 %
14.05.2019 21:08 13,5 C 11,7 C 10,6 C 54 % 1026,9 hPa 0,0 l/m 0 min 0 min 9 W/m 6,4 km/h (2 Bft) 95,74 %
14.05.2019 21:10 13,4 C 11,7 C 10,6 C 54 % 1026,9 hPa 0,0 l/m 0 min 0 min 7 W/m 6,4 km/h (2 Bft) 93,62 %
14.05.2019 21:12 13,4 C 11,7 C 10,6 C 54 % 1026,9 hPa 0,0 l/m 0 min 0 min 7 W/m 6,4 km/h (2 Bft) 95,35 %
14.05.2019 21:14 13,3 C 11,1 C 10,6 C 54 % 1026,9 hPa 0,0 l/m 0 min 0 min 7 W/m 3,2 km/h (1 Bft) 95,74 %
14.05.2019 21:16 13,3 C 11,1 C 10,6 C 55 % 1026,9 hPa 0,0 l/m 0 min 0 min 5 W/m 3,2 km/h (1 Bft) 95,65 %
14.05.2019 21:18 13,2 C 11,1 C 10,6 C 55 % 1026,9 hPa 0,0 l/m 0 min 0 min 5 W/m 3,2 km/h (1 Bft) 91,49 %
14.05.2019 21:20 13,2 C 11,1 C 10,0 C 55 % 1026,9 hPa 0,0 l/m 0 min 0 min 1 W/m 6,4 km/h (2 Bft) 96,00 %
14.05.2019 21:22 13,1 C 11,1 C 10,0 C 55 % 1026,9 hPa 0,0 l/m 0 min 0 min 0 W/m 6,4 km/h (2 Bft) 95,83 %
14.05.2019 21:24 13,1 C 10,6 C 10,0 C 55 % 1026,9 hPa 0,0 l/m 0 min 0 min 0 W/m 6,4 km/h (2 Bft) 93,62 %
14.05.2019 21:26 13,0 C 10,6 C 10,0 C 55 % 1027,0 hPa 0,0 l/m 0 min 0 min 0 W/m 3,2 km/h (1 Bft) 95,74 %
14.05.2019 21:28 12,9 C 10,6 C 10,0 C 56 % 1026,9 hPa 0,0 l/m 0 min 0 min 0 W/m 3,2 km/h (1 Bft) 95,24 %
14.05.2019 21:30 12,9 C 10,6 C 10,0 C 56 % 1026,9 hPa 0,0 l/m 0 min 0 min 0 W/m 3,2 km/h (1 Bft) 94,00 %
14.05.2019 21:32 12,8 C 10,6 C 9,4 C 56 % 1027,0 hPa 0,0 l/m 0 min 0 min 0 W/m 3,2 km/h (1 Bft) 95,83 %
14.05.2019 21:34 12,8 C 10,6 C 9,4 C 56 % 1026,9 hPa 0,0 l/m 0 min 0 min 0 W/m 3,2 km/h (1 Bft) 95,74 %
14.05.2019 21:36 12,7 C 10,0 C 9,4 C 56 % 1026,8 hPa 0,0 l/m 0 min 0 min 0 W/m 3,2 km/h (1 Bft) 96,30 %
14.05.2019 21:38 12,6 C 10,0 C 9,4 C 57 % 1026,8 hPa 0,0 l/m 0 min 0 min 0 W/m 3,2 km/h (1 Bft) 94,44 %
14.05.2019 21:40 12,6 C 10,0 C 9,4 C 57 % 1026,8 hPa 0,0 l/m 0 min 0 min 0 W/m 3,2 km/h (1 Bft) 95,74 %
14.05.2019 21:42 12,5 C 10,0 C 9,4 C 57 % 1026,9 hPa 0,0 l/m 0 min 0 min 0 W/m 3,2 km/h (1 Bft) 95,92 %
14.05.2019 21:44 12,4 C 10,0 C 9,4 C 57 % 1026,9 hPa 0,0 l/m 0 min 0 min 0 W/m 3,2 km/h (1 Bft) 93,75 %
14.05.2019 21:46 12,4 C 9,4 C 9,4 C 57 % 1026,9 hPa 0,0 l/m 0 min 0 min 0 W/m 3,2 km/h (1 Bft) 93,62 %
14.05.2019 21:48 12,3 C 9,4 C 8,9 C 57 % 1026,9 hPa 0,0 l/m 0 min 0 min 0 W/m 3,2 km/h (1 Bft) 95,35 %
14.05.2019 21:50 12,2 C 9,4 C 8,9 C 58 % 1027,0 hPa 0,0 l/m 0 min 0 min 0 W/m 3,2 km/h (1 Bft) 95,74 %
14.05.2019 21:52 12,2 C 9,4 C 8,9 C 58 % 1026,9 hPa 0,0 l/m 0 min 0 min 0 W/m 3,2 km/h (1 Bft) 95,92 %
14.05.2019 21:54 12,1 C 9,4 C 8,9 C 59 % 1026,9 hPa 0,0 l/m 0 min 0 min 0 W/m 3,2 km/h (1 Bft) 93,75 %
14.05.2019 21:56 12,1 C 9,4 C 8,9 C 59 % 1027,0 hPa 0,0 l/m 0 min 0 min 0 W/m 3,2 km/h (1 Bft) 95,74 %
14.05.2019 21:58 12,0 C 9,4 C 8,9 C 59 % 1027,0 hPa 0,0 l/m 0 min 0 min 0 W/m 0,0 km/h (0 Bft) 95,35 %
14.05.2019 22:00 11,9 C 9,4 C 8,9 C 59 % 1027,1 hPa 0,0 l/m 0 min 0 min 0 W/m 3,2 km/h (1 Bft) 98,00 %
14.05.2019 22:02 11,8 C 9,4 C 8,9 C 59 % 1027,0 hPa 0,0 l/m 0 min 0 min 0 W/m 0,0 km/h (0 Bft) 97,92 %
14.05.2019 22:04 11,8 C 9,4 C 8,9 C 59 % 1027,1 hPa 0,0 l/m 0 min 0 min 0 W/m 3,2 km/h (1 Bft) 97,83 %
14.05.2019 22:06 11,7 C 9,4 C 8,3 C 59 % 1027,1 hPa 0,0 l/m 0 min 0 min 0 W/m 3,2 km/h (1 Bft) 94,55 %
14.05.2019 22:08 11,7 C 9,4 C 8,9 C 59 % 1027,1 hPa 0,0 l/m 0 min 0 min 0 W/m 3,2 km/h (1 Bft) 100,00 %
14.05.2019 22:10 11,6 C 9,4 C 8,9 C 59 % 1027,0 hPa 0,0 l/m 0 min 0 min 0 W/m 0,0 km/h (0 Bft) 97,87 %
14.05.2019 22:12 11,5 C 9,4 C 8,3 C 59 % 1027,1 hPa 0,0 l/m 0 min 0 min 0 W/m 0,0 km/h (0 Bft) 92,00 %
14.05.2019 22:14 11,4 C 9,4 C 8,3 C 59 % 1027,1 hPa 0,0 l/m 0 min 0 min 0 W/m 3,2 km/h (1 Bft) 97,87 %
14.05.2019 22:16 11,4 C 8,9 C 8,3 C 59 % 1027,1 hPa 0,0 l/m 0 min 0 min 0 W/m 3,2 km/h (1 Bft) 97,87 %
14.05.2019 22:18 11,3 C 8,9 C 8,3 C 60 % 1027,0 hPa 0,0 l/m 0 min 0 min 0 W/m 0,0 km/h (0 Bft) 97,87 %
14.05.2019 22:20 11,3 C 8,9 C 8,3 C 60 % 1027,0 hPa 0,0 l/m 0 min 0 min 0 W/m 0,0 km/h (0 Bft) 95,35 %
14.05.2019 22:22 11,2 C 8,9 C 8,3 C 60 % 1027,0 hPa 0,0 l/m 0 min 0 min 0 W/m 0,0 km/h (0 Bft) 97,87 %
14.05.2019 22:24 11,2 C 8,9 C 8,3 C 60 % 1026,9 hPa 0,0 l/m 0 min 0 min 0 W/m 0,0 km/h (0 Bft) 96,00 %
14.05.2019 22:26 11,2 C 8,9 C 7,8 C 60 % 1027,0 hPa 0,0 l/m 0 min 0 min 0 W/m 0,0 km/h (0 Bft) 97,83 %
14.05.2019 22:28 11,1 C 8,9 C 7,8 C 60 % 1026,9 hPa 0,0 l/m 0 min 0 min 0 W/m 0,0 km/h (0 Bft) 100,00 %
14.05.2019 22:30 11,1 C 8,9 C 7,8 C 60 % 1026,9 hPa 0,0 l/m 0 min 0 min 0 W/m 0,0 km/h (0 Bft) 100,00 %
14.05.2019 22:32 11,0 C 8,9 C 7,8 C 60 % 1026,9 hPa 0,0 l/m 0 min 0 min 0 W/m 0,0 km/h (0 Bft) 100,00 %
14.05.2019 22:34 10,9 C 8,3 C 7,8 C 60 % 1026,9 hPa 0,0 l/m 0 min 0 min 0 W/m 0,0 km/h (0 Bft) 95,35 %
14.05.2019 22:36 10,9 C 8,3 C 7,8 C 61 % 1026,9 hPa 0,0 l/m 0 min 0 min 0 W/m 0,0 km/h (0 Bft) 100,00 %
14.05.2019 22:38 10,8 C 8,3 C 7,2 C 61 % 1026,9 hPa 0,0 l/m 0 min 0 min 0 W/m 0,0 km/h (0 Bft) 100,00 %
14.05.2019 22:40 10,8 C 8,3 C 7,2 C 61 % 1026,9 hPa 0,0 l/m 0 min 0 min 0 W/m 0,0 km/h (0 Bft) 100,00 %
14.05.2019 22:42 10,8 C 8,3 C 7,2 C 61 % 1026,9 hPa 0,0 l/m 0 min 0 min 0 W/m 0,0 km/h (0 Bft) 100,00 %
14.05.2019 22:44 10,7 C 8,3 C 7,2 C 61 % 1026,8 hPa 0,0 l/m 0 min 0 min 0 W/m 0,0 km/h (0 Bft) 100,00 %
14.05.2019 22:46 10,7 C 8,3 C 7,2 C 61 % 1026,8 hPa 0,0 l/m 0 min 0 min 0 W/m 0,0 km/h (0 Bft) 100,00 %
14.05.2019 22:48 10,7 C 8,3 C 7,2 C 61 % 1026,8 hPa 0,0 l/m 0 min 0 min 0 W/m 3,2 km/h (1 Bft) 100,00 %
14.05.2019 22:50 10,6 C 8,3 C 7,2 C 61 % 1026,8 hPa 0,0 l/m 0 min 0 min 0 W/m 0,0 km/h (0 Bft) 100,00 %
14.05.2019 22:52 10,6 C 8,3 C 7,2 C 61 % 1026,8 hPa 0,0 l/m 0 min 0 min 0 W/m 0,0 km/h (0 Bft) 100,00 %
14.05.2019 22:54 10,5 C 8,3 C 7,2 C 61 % 1026,8 hPa 0,0 l/m 0 min 0 min 0 W/m 0,0 km/h (0 Bft) 97,92 %
14.05.2019 22:56 10,4 C 8,3 C 7,2 C 62 % 1026,8 hPa 0,0 l/m 0 min 0 min 0 W/m 0,0 km/h (0 Bft) 97,87 %
14.05.2019 22:58 10,4 C 8,3 C 7,2 C 62 % 1026,8 hPa 0,0 l/m 0 min 0 min 0 W/m 3,2 km/h (1 Bft) 100,00 %
14.05.2019 23:00 10,4 C 8,3 C 7,2 C 62 % 1026,7 hPa 0,0 l/m 0 min 0 min 0 W/m 0,0 km/h (0 Bft) 100,00 %
14.05.2019 23:02 10,4 C 7,8 C 7,2 C 62 % 1026,7 hPa 0,0 l/m 0 min 0 min 0 W/m 0,0 km/h (0 Bft) 100,00 %
14.05.2019 23:04 10,3 C 7,8 C 7,2 C 62 % 1026,8 hPa 0,0 l/m 0 min 0 min 0 W/m 0,0 km/h (0 Bft) 98,00 %
14.05.2019 23:06 10,2 C 7,8 C 6,7 C 62 % 1026,7 hPa 0,0 l/m 0 min 0 min 0 W/m 3,2 km/h (1 Bft) 100,00 %
14.05.2019 23:08 10,2 C 7,8 C 6,7 C 62 % 1026,7 hPa 0,0 l/m 0 min 0 min 0 W/m 0,0 km/h (0 Bft) 100,00 %
14.05.2019 23:10 10,2 C 7,8 C 6,7 C 63 % 1026,8 hPa 0,0 l/m 0 min 0 min 0 W/m 0,0 km/h (0 Bft) 100,00 %
14.05.2019 23:12 10,1 C 7,8 C 6,7 C 63 % 1026,8 hPa 0,0 l/m 0 min 0 min 0 W/m 0,0 km/h (0 Bft) 100,00 %
14.05.2019 23:14 10,1 C 7,8 C 6,7 C 63 % 1026,7 hPa 0,0 l/m 0 min 0 min 0 W/m 0,0 km/h (0 Bft) 100,00 %
14.05.2019 23:16 10,1 C 7,8 C 6,7 C 63 % 1026,7 hPa 0,0 l/m 0 min 0 min 0 W/m 0,0 km/h (0 Bft) 98,00 %
14.05.2019 23:18 10,0 C 7,8 C 6,7 C 64 % 1026,7 hPa 0,0 l/m 0 min 0 min 0 W/m 0,0 km/h (0 Bft) 100,00 %
14.05.2019 23:20 9,9 C 7,8 C 6,7 C 64 % 1026,7 hPa 0,0 l/m 0 min 0 min 0 W/m 0,0 km/h (0 Bft) 100,00 %
14.05.2019 23:22 9,9 C 7,8 C 6,7 C 63 % 1026,7 hPa 0,0 l/m 0 min 0 min 0 W/m 0,0 km/h (0 Bft) 95,74 %
14.05.2019 23:24 9,9 C 7,8 C 6,7 C 64 % 1026,7 hPa 0,0 l/m 0 min 0 min 0 W/m 0,0 km/h (0 Bft) 100,00 %
14.05.2019 23:26 9,8 C 7,2 C 6,7 C 64 % 1026,7 hPa 0,0 l/m 0 min 0 min 0 W/m 0,0 km/h (0 Bft) 100,00 %
14.05.2019 23:28 9,8 C 7,2 C 6,7 C 64 % 1026,7 hPa 0,0 l/m 0 min 0 min 0 W/m 0,0 km/h (0 Bft) 100,00 %
14.05.2019 23:30 9,7 C 7,2 C 6,1 C 64 % 1026,7 hPa 0,0 l/m 0 min 0 min 0 W/m 0,0 km/h (0 Bft) 100,00 %
14.05.2019 23:32 9,7 C 7,2 C 6,1 C 65 % 1026,7 hPa 0,0 l/m 0 min 0 min 0 W/m 0,0 km/h (0 Bft) 97,67 %
14.05.2019 23:34 9,7 C 7,2 C 6,1 C 65 % 1026,7 hPa 0,0 l/m 0 min 0 min 0 W/m 0,0 km/h (0 Bft) 100,00 %
14.05.2019 23:36 9,6 C 7,2 C 6,1 C 66 % 1026,7 hPa 0,0 l/m 0 min 0 min 0 W/m 0,0 km/h (0 Bft) 97,96 %
14.05.2019 23:38 9,6 C 6,7 C 6,1 C 66 % 1026,6 hPa 0,0 l/m 0 min 0 min 0 W/m 0,0 km/h (0 Bft) 100,00 %
14.05.2019 23:40 9,5 C 7,2 C 6,1 C 67 % 1026,6 hPa 0,0 l/m 0 min 0 min 0 W/m 0,0 km/h (0 Bft) 97,87 %
14.05.2019 23:42 9,4 C 6,7 C 6,1 C 67 % 1026,5 hPa 0,0 l/m 0 min 0 min 0 W/m 0,0 km/h (0 Bft) 97,87 %
14.05.2019 23:44 9,4 C 6,7 C 6,1 C 67 % 1026,6 hPa 0,0 l/m 0 min 0 min 0 W/m 0,0 km/h (0 Bft) 97,92 %
14.05.2019 23:46 9,3 C 6,7 C 6,1 C 67 % 1026,6 hPa 0,0 l/m 0 min 0 min 0 W/m 0,0 km/h (0 Bft) 97,87 %
14.05.2019 23:48 9,3 C 6,7 C 6,1 C 68 % 1026,6 hPa 0,0 l/m 0 min 0 min 0 W/m 0,0 km/h (0 Bft) 93,02 %
14.05.2019 23:50 9,2 C 6,7 C 5,6 C 68 % 1026,5 hPa 0,0 l/m 0 min 0 min 0 W/m 0,0 km/h (0 Bft) 95,65 %
14.05.2019 23:52 9,2 C 6,7 C 5,6 C 68 % 1026,6 hPa 0,0 l/m 0 min 0 min 0 W/m 0,0 km/h (0 Bft) 98,00 %
14.05.2019 23:54 9,1 C 6,7 C 5,6 C 68 % 1026,5 hPa 0,0 l/m 0 min 0 min 0 W/m 0,0 km/h (0 Bft) 95,83 %
14.05.2019 23:56 9,1 C 6,7 C 5,6 C 68 % 1026,5 hPa 0,0 l/m 0 min 0 min 0 W/m 0,0 km/h (0 Bft) 97,87 %
14.05.2019 23:58 9,0 C 6,7 C 5,6 C 68 % 1026,5 hPa 0,0 l/m 0 min 0 min 0 W/m 0,0 km/h (0 Bft) 95,35 %
_ Min-Zeit 07:16 06:10 07:06 18:16 23:42 - - - - 01:38 05:40
Minimum _ 5,0 C 3,9 C 3,3 C 44 % 1026,5 hPa - - - - 0,0 km/h (0 Bft) 88,68 %
_ Max-Zeit 15:40 11:50 13:14 08:16 00:00 00:00 18:08 00:00 12:48 09:42 00:02
Maximum _ 18,8 C 25,0 C 28,9 C 90 % 1034,0 hPa 0,0 l/m 4 min 0 min 1098 W/m 25,7 km/h
N-NO (4 Bft)
100,00 %
Durchschnitt _ 12,2 C 12,9 C 12,8 C 63 % 1030,5 hPa #0,0 l/m #9:53 h #0 min. 456 W/m 8,1 km/h (2 Bft) 97,65 %
© 2019 W. Hausmann